ECMWFFLT1_con_mucape_000.txt.gz
CAPE
533 144 564 346 379 238 187 109 56 69 18 21 136 35 52 32 68 3 2 322 24 4 4 18 104 137 125 62 85 345 350 357 601 606 460 410 510 247 344 455 703 496 417 488 609 372 419 346 508 511 534 432 462 383 256 119 70 171 1049 1253 1054 846 882
164 301 77 10 98 273 287 210 105 21 204 66 0 0 0 0 0 0 0 0 0 0 0 0 0 3 48 93 96 58 52 30 90 178 378 563 365 250 293 571 552 446 478 320 433 235 322 164 136 234 374 901 754 481 340 290 211 108 128 378 1460 1361 886
132 68 2 182 177 300 451 332 124 63 3 74 6 0 0 0 0 0 0 0 0 0 0 0 0 0 0 2 16 18 14 8 7 0 0 0 0 0 0 238 430 270 134 168 365 139 204 81 44 28 36 48 34 621 993 644 314 150 92 54 7 441 909
300 360 189 174 116 320 146 190 149 23 20 0 0 0 0 0 0 0 0 0 0 0 0 0 0 0 0 0 0 0 0 0 0 0 0 0 0 0 0 0 0 0 0 0 0 0 0 2 0 0 0 0 0 0 388 863 532 220 125 165 174 83 28
379 433 227 252 184 236 109 272 186 83 10 19 0 0 9 0 0 0 0 0 0 0 0 0 0 0 0 0 0 0 0 0 0 0 0 0 0 0 0 0 0 0 0 0 0 0 0 0 0 0 0 0 0 0 0 0 284 542 375 205 182 148 124
395 471 274 418 196 302 177 230 57 24 1 6 3 1 0 0 0 0 0 0 0 0 0 0 0 0 0 0 0 0 0 0 0 0 0 0 0 0 0 0 0 0 0 0 0 0 0 0 0 0 0 0 0 0 0 0 0 0 16 205 286 141 38
363 622 273 391 375 288 267 362 112 51 16 23 21 2 8 2 6 9 0 0 0 0 0 0 0 0 0 0 0 0 0 0 0 0 0 0 0 0 0 0 0 0 0 0 0 0 0 0 0 0 0 0 0 0 0 0 0 0 0 0 0 0 4
509 498 392 396 331 437 155 379 381 200 217 78 53 17 4 37 69 7 0 0 0 0 0 0 0 0 0 0 0 0 0 0 0 0 0 0 0 0 0 0 0 0 0 0 0 0 0 0 0 0 0 0 0 0 0 0 0 0 0 0 0 0 0
362 361 501 404 361 651 231 246 461 318 369 270 183 14 7 121 34 26 0 0 0 0 0 0 0 0 0 0 0 0 0 0 0 0 0 0 0 0 0 0 0 0 0 0 0 0 0 0 0 0 0 0 0 0 0 0 0 0 0 0 0 0 0
514 388 503 536 484 885 632 293 477 491 688 440 359 62 42 164 69 16 2 3 2 0 0 0 0 0 0 0 0 0 0 0 0 0 0 0 0 0 0 0 0 0 0 0 0 0 0 0 0 0 0 0 0 0 0 0 0 0 0 0 0 0 0
913 824 907 941 533 555 995 430 677 495 896 653 450 240 150 263 170 103 55 21 19 2 0 0 0 0 0 0 0 0 0 0 0 0 0 0 0 0 0 0 0 0 0 0 0 0 0 0 0 0 0 0 0 0 0 0 0 0 0 0 0 0 0
1328 1282 913 1192 816 475 927 566 634 445 939 792 516 336 311 241 218 120 154 41 36 19 3 1 0 0 0 0 0 0 0 0 0 0 0 0 0 0 0 0 0 0 0 0 0 0 0 0 0 0 0 0 0 0 0 0 0 0 0 0 0 0 0
1023 979 1312 1768 1429 637 744 979 1109 415 979 821 639 486 341 219 202 142 222 100 63 11 1 2 0 0 0 0 0 0 0 0 0 0 0 0 0 0 0 0 0 0 0 0 0 0 0 0 0 0 0 0 0 0 0 0 0 0 0 0 0 0 0
1229 1137 1787 1341 1375 1501 748 394 622 906 845 780 717 500 407 268 173 110 161 161 81 24 0 0 0 0 0 0 0 0 0 0 0 0 0 0 0 0 0 0 0 0 0 0 0 0 0 0 0 0 0 0 0 0 0 0 0 0 0 0 0 0 0
1540 1387 1247 1003 828 668 693 783 1406 397 719 766 703 489 369 438 266 135 147 153 141 44 25 0 0 0 0 0 0 0 0 0 0 0 0 0 0 0 0 0 0 0 0 0 0 0 0 0 0 0 0 0 0 0 0 0 0 0 0 0 0 0 0
1548 2122 1164 1341 932 694 791 858 804 111 172 693 756 574 302 613 370 220 226 238 89 77 61 25 4 3 0 0 0 0 0 0 0 0 0 0 0 0 0 0 0 0 0 0 0 0 0 0 0 0 0 0 0 0 0 0 0 0 0 0 0 0 0
1668 1952 1819 1483 1464 1321 1313 1155 1041 668 515 605 742 772 355 364 437 292 271 230 243 234 101 75 38 8 0 0 0 0 0 0 0 0 0 0 0 0 0 0 0 0 0 0 0 0 0 0 0 0 0 0 0 0 0 0 0 0 0 0 0 0 0
2251 1610 1342 1069 861 890 957 762 622 583 714 650 564 300 379 376 499 213 303 304 260 255 191 108 37 14 0 6 11 8 0 0 0 0 0 0 0 0 0 0 0 0 0 0 0 0 0 0 0 0 0 0 0 0 0 0 0 0 0 0 0 0 0
1504 1587 1394 1140 899 940 991 1119 713 89 344 296 302 78 37 435 56 21 27 241 130 216 241 141 73 23 0 3 6 4 0 1 0 0 0 0 0 0 0 0 0 0 0 0 0 0 0 0 0 0 0 0 0 0 0 0 0 0 0 0 0 0 0
1662 1262 1434 1415 1207 1208 948 958 824 803 424 360 329 108 52 46 51 8 5 136 216 171 205 189 122 62 12 0 0 0 0 0 6 10 0 0 0 0 0 0 0 0 0 0 0 0 0 0 0 0 0 0 0 0 0 0 0 0 0 0 0 0 0
288 749 1322 1261 1359 1228 771 418 426 817 500 474 373 233 168 112 88 160 265 222 258 236 199 258 239 123 26 1 0 0 0 12 1 0 0 0 0 0 0 0 0 0 0 0 0 0 0 0 0 0 0 0 0 0 0 0 0 0 0 0 0 0 0
564 670 534 548 719 742 682 621 478 474 855 819 663 560 441 366 294 103 123 329 407 416 358 328 186 170 78 142 8 1 0 3 3 0 0 0 0 0 0 0 0 0 0 0 0 0 0 0 0 0 0 0 0 0 0 0 0 0 0 0 0 0 0
101 0 44 185 218 133 131 273 393 1074 936 742 598 473 580 419 308 215 246 510 385 343 565 584 274 244 19 12 1 0 0 0 4 14 10 12 0 0 0 0 0 0 0 0 0 0 0 0 0 0 0 0 0 0 0 0 0 0 0 0 0 0 0
0 0 8 0 1 10 162 304 374 551 542 364 297 298 443 544 315 238 251 406 416 656 364 391 328 325 246 180 131 94 0 2 9 18 11 5 1 0 3 0 0 0 0 0 0 0 0 0 0 0 0 0 0 0 0 0 0 0 0 0 0 0 0
0 0 0 0 0 0 1 47 85 284 539 502 600 538 494 454 487 680 545 536 844 574 430 333 369 283 240 196 150 102 10 32 36 4 12 14 19 15 26 0 3 0 0 0 0 0 0 0 0 0 0 0 0 0 0 0 0 0 0 0 0 0 0
0 0 0 0 0 0 0 6 115 299 417 485 93 123 258 423 748 851 1192 909 649 580 508 466 276 305 203 185 126 34 0 0 0 5 2 7 0 0 2 0 0 0 0 0 0 0 0 0 0 0 0 0 0 0 0 0 0 0 0 0 0 0 0
0 0 0 0 0 0 0 0 133 299 220 221 269 426 622 543 584 840 961 652 363 411 487 511 360 340 346 258 192 138 0 0 0 3 0 0 0 0 0 0 0 0 0 0 0 0 0 0 0 0 0 0 0 0 0 0 0 0 0 0 0 0 0
0 0 0 0 0 0 0 0 14 131 256 274 307 286 388 431 497 632 736 480 374 355 416 504 474 394 268 238 152 0 0 0 0 2 2 0 0 0 0 0 0 0 0 0 0 0 0 0 0 0 0 0 0 0 0 0 0 0 0 0 0 0 0
0 0 0 0 0 0 6 23 21 64 188 286 217 182 208 373 507 550 583 360 296 318 375 411 437 387 277 194 81 11 12 29 0 0 0 0 0 0 0 0 0 0 0 0 0 0 0 0 0 0 0 0 0 0 0 0 0 0 0 0 0 0 0
0 0 0 0 0 2 4 28 26 31 112 251 260 241 187 219 168 299 388 232 224 248 286 298 274 269 224 152 0 29 0 13 11 0 1 1 0 0 0 0 0 0 0 0 0 0 0 0 0 0 0 0 0 0 0 0 0 0 0 0 0 0 0
0 0 0 0 0 8 8 4 9 28 68 112 228 219 162 120 118 100 74 196 188 192 184 178 190 196 212 200 0 6 0 0 3 2 3 0 0 0 1 0 0 0 0 0 0 0 0 0 0 0 0 0 0 0 0 0 0 0 0 0 0 0 0
1 1 1 7 38 35 35 44 30 38 84 131 154 162 32 59 20 0 0 0 0 0 0 0 71 100 106 112 122 56 0 1 7 6 4 1 1 3 4 1 0 0 0 0 0 0 0 0 0 0 0 0 0 0 0 0 0 0 0 0 0 0 0
5 5 9 56 54 51 50 36 60 101 179 148 85 71 91 119 1 0 0 0 0 0 0 0 36 33 37 36 44 33 0 0 10 6 2 4 0 7 6 0 0 0 0 0 0 0 0 0 0 0 0 0 0 0 0 0 0 0 0 0 0 0 0
18 22 8 46 98 58 32 44 64 123 190 182 213 338 178 122 2 0 0 0 0 0 0 0 0 1 2 14 24 14 0 0 1 9 20 2 6 13 1 3 1 0 0 0 0 0 0 0 0 0 0 0 0 0 0 0 0 0 0 0 0 0 0
5 25 19 23 50 99 123 135 95 105 83 117 326 190 136 106 33 0 0 0 0 0 0 0 0 0 1 5 8 14 22 36 47 46 32 31 39 32 21 11 1 0 0 0 0 0 0 0 0 0 0 0 0 0 0 0 0 0 0 0 0 0 0
1 1 1 5 15 90 148 154 181 191 282 382 304 181 135 110 84 0 0 0 0 0 0 0 0 0 1 1 7 12 17 40 63 50 44 46 25 22 19 6 0 0 0 0 0 0 0 0 0 0 0 0 0 0 0 0 0 0 0 0 0 0 0
0 0 0 0 0 19 94 195 224 329 423 361 266 229 172 144 99 0 0 0 0 0 0 0 0 2 2 4 12 21 35 51 61 68 62 63 30 23 23 8 2 0 0 0 0 0 0 0 0 0 0 0 0 0 0 0 0 0 0 1 4 6 6

ECMWFFLT1_con_mucape_006.txt.gz
CAPE
0 0 0 0 0 0 0 0 0 0 0 0 0 0 0 0 0 0 0 0 275 535 685 914 841 789 834 749 810 640 612 796 844 664 788 846 719 833 724 698 642 589 517 512 360 77 37 36 3 0 244 5 418 359 287 238 78 236 195 88 87 401 506
0 0 0 0 0 0 0 0 0 0 0 0 0 0 0 0 0 0 0 0 12 48 0 0 0 120 264 281 126 218 511 655 557 360 514 604 559 616 615 482 633 234 278 413 336 302 307 223 68 1 0 0 0 0 0 6 7 24 111 138 104 64 76
0 0 0 0 0 0 0 0 0 0 0 0 0 0 0 0 0 0 0 0 0 0 8 17 20 7 0 0 0 99 318 281 139 94 117 110 117 205 309 285 115 2 0 0 0 0 172 150 81 6 0 0 0 0 0 0 0 0 2 48 93 72 34
0 0 0 0 0 0 0 0 0 0 0 0 0 0 0 0 0 0 0 0 0 0 0 0 0 3 3 6 6 0 0 0 0 0 0 0 0 22 0 0 0 0 0 0 0 0 0 0 0 0 0 0 0 0 0 0 0 0 0 0 0 2 38
0 0 0 0 0 0 0 0 0 0 0 0 0 0 0 0 0 0 0 0 0 0 0 0 0 0 0 0 0 0 0 0 0 0 0 0 0 0 0 0 0 0 0 0 0 0 0 0 0 0 0 0 0 0 0 0 0 0 0 0 0 0 0
0 0 0 0 0 0 0 0 0 0 0 0 0 0 0 0 0 0 0 0 0 0 0 0 0 0 0 0 0 0 0 0 0 0 0 0 0 0 0 0 0 0 0 0 0 0 0 0 0 0 0 0 0 0 0 0 0 0 0 0 0 0 0
8 0 0 0 0 0 0 0 0 0 0 0 0 0 0 0 0 0 0 0 0 0 0 0 0 0 0 0 0 0 0 0 0 0 0 0 0 0 0 0 0 0 0 0 0 0 0 0 0 0 0 0 0 0 0 0 0 0 0 0 0 0 0
11 9 0 0 0 0 0 0 0 0 0 0 0 0 0 0 0 0 0 0 0 0 0 0 0 0 0 0 0 0 0 0 0 0 0 0 0 0 0 0 0 0 0 0 0 0 0 0 0 0 0 0 0 0 0 0 0 0 0 0 0 0 0
9 10 0 0 0 0 0 0 0 0 0 0 0 0 0 0 0 0 0 0 0 0 0 0 0 0 0 0 0 0 0 0 0 0 0 0 0 0 0 0 0 0 0 0 0 0 0 0 0 0 0 0 0 0 0 0 0 0 0 0 0 0 0
11 4 0 0 0 0 0 0 0 0 0 0 0 0 0 0 0 0 0 0 0 0 0 0 0 0 0 0 0 0 0 0 0 0 0 0 0 0 0 0 0 0 0 0 0 0 0 0 0 0 0 0 0 0 0 0 0 0 0 0 0 0 0
15 0 0 0 0 0 0 0 0 0 0 0 0 0 0 0 0 0 0 0 0 0 0 0 0 0 0 0 0 0 0 0 0 0 0 0 0 0 0 0 0 0 0 0 0 0 0 0 0 0 0 0 0 0 0 0 0 0 0 0 0 0 0
1 0 0 0 0 0 0 0 0 0 0 0 0 0 0 0 0 0 0 0 0 0 0 0 0 0 0 0 0 0 0 0 0 0 0 0 0 0 0 0 0 0 0 0 0 0 0 0 0 0 0 0 0 0 0 0 0 0 0 0 0 0 0
0 0 0 0 0 0 0 0 0 0 0 0 0 0 0 0 0 0 0 0 0 0 0 0 0 0 0 0 0 0 0 0 0 0 0 0 0 0 0 0 0 0 0 0 0 0 0 0 0 0 0 0 0 0 0 0 0 0 0 0 0 0 0
0 0 0 0 2 1 0 0 0 0 0 0 0 0 0 0 0 0 0 0 0 0 0 0 0 0 0 0 0 0 0 0 0 0 0 0 0 0 0 0 0 0 0 0 0 0 0 0 0 0 0 0 0 0 0 0 0 0 0 0 0 0 0
0 0 12 14 9 0 0 0 0 0 0 0 0 0 0 0 0 0 0 0 0 0 0 0 0 0 0 0 0 0 0 0 0 0 0 0 0 0 0 0 0 0 0 0 0 0 0 0 0 0 0 0 0 0 0 0 0 0 0 0 0 0 0
0 0 0 9 6 0 0 0 0 0 0 0 0 0 0 0 0 0 0 0 0 0 0 0 0 0 0 0 0 0 0 0 0 0 0 0 0 0 0 0 0 0 0 0 0 0 0 0 0 0 0 0 0 0 0 0 0 0 0 0 0 0 0
4 0 1 13 5 0 20 16 0 1 0 0 0 0 0 0 0 0 0 0 0 0 0 0 0 0 0 0 0 0 0 0 0 0 0 0 0 0 0 0 0 0 0 0 0 0 0 0 0 0 0 0 0 0 0 0 0 0 0 0 0 0 0
0 0 6 7 6 8 4 5 4 0 1 11 0 0 0 0 12 0 0 0 0 0 0 0 0 0 0 0 0 0 0 0 0 0 0 0 0 0 0 0 0 0 0 0 0 0 0 0 0 0 0 0 0 0 0 0 0 0 0 0 0 0 0
19 28 2 4 3 20 5 0 0 0 3 12 39 3 2 32 0 0 0 0 0 0 64 101 28 0 0 0 0 0 0 0 0 0 0 0 0 0 0 0 0 0 0 0 0 0 0 0 0 0 0 0 0 0 0 0 0 0 0 0 0 0 0
107 32 25 19 1 8 1 332 254 3 3 25 27 18 5 16 28 15 0 0 0 0 0 0 0 0 0 0 0 0 2 23 0 0 0 0 0 0 0 0 0 0 0 0 0 0 0 0 0 0 0 0 0 0 0 0 0 0 0 0 0 0 0
152 230 151 7 0 6 15 36 54 66 3 15 5 20 0 3 0 4 1 0 0 0 0 0 0 0 0 0 0 0 0 0 0 160 0 0 0 0 0 0 0 0 0 0 0 0 0 0 0 0 0 0 0 0 0 0 0 0 0 0 0 0 0
376 250 229 45 60 52 5 60 42 16 9 55 60 30 35 4 8 37 9 39 0 0 0 0 0 0 0 0 0 0 0 0 0 211 154 85 0 0 0 0 0 0 0 0 0 0 0 0 0 0 0 0 0 0 0 0 0 0 0 0 0 0 0
120 34 17 0 2 0 140 177 18 0 4 1 2 30 0 3 0 0 0 0 0 0 0 0 0 0 0 0 0 0 0 0 0 0 0 0 0 60 54 93 0 29 0 0 0 0 0 0 0 0 0 0 0 0 0 0 0 0 0 0 0 0 0
84 223 164 172 0 0 0 218 283 124 0 0 0 0 0 0 0 0 0 0 0 0 0 0 0 0 0 0 0 79 134 120 98 190 214 205 190 193 175 170 62 0 0 24 32 0 0 0 0 0 0 0 0 0 0 0 0 0 0 0 0 0 0
289 127 155 204 170 12 96 202 74 0 3 14 48 123 260 127 114 244 264 256 123 111 102 92 86 83 131 138 164 196 239 247 286 293 312 276 238 170 45 10 0 0 0 0 0 0 0 0 0 0 0 0 0 0 0 0 0 0 0 0 0 0 0
0 0 101 0 0 0 0 0 0 0 0 0 0 0 0 0 0 148 235 317 321 294 285 328 339 418 527 559 548 530 525 503 400 349 338 310 156 103 124 83 13 9 3 5 0 1 0 0 0 0 0 0 0 0 0 0 0 0 0 0 0 0 0
0 0 0 0 0 0 0 0 0 0 0 0 0 0 0 0 0 107 222 272 327 419 535 623 539 363 257 238 314 385 446 526 550 484 378 300 249 233 165 18 11 5 21 4 3 1 2 2 0 0 0 0 0 0 0 0 0 0 0 0 0 0 0
0 0 0 0 0 0 0 0 0 0 0 0 0 0 0 0 0 93 228 323 434 414 332 227 108 0 0 30 131 215 296 364 389 364 305 241 184 2 0 2 8 22 29 4 0 1 1 0 0 0 0 0 0 0 0 0 0 0 0 0 0 0 0
0 0 0 0 0 0 0 0 0 0 0 0 0 0 0 0 0 0 252 327 232 44 0 0 0 0 0 0 0 32 156 227 284 302 286 229 172 74 0 0 1 5 1 6 4 1 0 0 0 0 0 0 0 0 0 0 0 0 0 0 0 0 0
0 0 0 0 0 0 0 0 0 0 0 0 0 0 0 0 0 0 0 88 192 219 209 49 0 0 0 0 0 0 0 0 32 84 91 101 131 0 26 0 0 0 2 0 0 0 1 1 0 0 0 0 0 0 0 0 0 0 0 0 0 0 0
0 0 0 0 0 0 0 0 0 0 0 0 0 0 0 0 0 72 179 236 284 276 244 194 0 0 0 0 0 0 0 0 0 0 0 0 0 0 7 39 24 0 4 4 6 5 2 0 0 0 0 1 0 0 0 0 0 0 0 0 0 0 0
0 0 0 0 0 0 0 0 0 0 0 0 0 0 0 0 86 171 211 226 230 222 204 156 0 0 0 0 0 0 0 0 0 0 0 0 22 27 2 2 3 2 3 6 6 2 1 2 0 0 1 0 3 10 10 0 0 0 0 0 0 0 0
0 0 0 0 0 0 0 0 0 0 0 0 0 0 0 0 0 149 185 178 153 153 151 136 106 0 0 0 0 0 0 0 0 0 0 0 28 6 22 22 13 14 2 2 0 0 0 0 2 1 0 4 7 7 0 0 0 0 0 0 0 0 0
0 0 0 0 0 0 0 0 0 0 0 0 0 0 0 0 0 118 154 150 144 151 147 140 120 90 21 0 0 0 0 0 0 0 6 6 0 2 3 8 4 2 0 0 0 1 0 0 0 0 0 0 0 0 0 0 0 0 0 0 0 0 0
0 0 0 0 0 0 0 0 0 0 0 0 0 0 0 0 0 83 124 147 149 159 154 140 124 103 74 0 0 0 0 0 0 0 0 1 0 0 0 0 0 0 2 1 5 4 1 1 2 2 1 0 0 0 0 0 0 0 0 0 0 0 0
0 0 0 0 0 0 0 0 0 0 0 0 0 0 0 0 0 28 98 134 152 154 153 143 116 96 77 47 0 0 0 0 0 0 0 0 0 0 0 2 4 2 4 5 1 0 1 4 4 1 0 0 0 0 0 0 0 0 0 0 0 0 0
0 0 0 0 0 0 0 0 0 0 0 0 0 0 0 0 0 22 92 132 146 143 130 116 114 103 80 43 0 0 0 0 0 0 0 0 0 2 5 1 0 2 1 0 0 0 1 0 0 0 0 0 0 0 0 0 0 0 0 0 0 0 0

ECMWFFLT1_con_mucape_009.txt.gz
CAPE
0 0 0 0 0 0 0 0 0 0 0 0 0 0 0 505 692 776 895 1072 1236 1352 1258 1157 1022 861 818 816 763 800 768 782 1018 874 860 664 754 724 740 704 681 537 523 524 241 26 0 29 5 0 0 0 0 0 0 0 0 0 0 0 0 0 0
0 0 0 0 0 0 0 0 0 0 0 0 0 0 0 34 99 96 169 430 812 984 1077 854 763 708 765 685 634 614 569 640 820 890 806 843 726 762 732 730 654 253 307 142 170 302 299 216 0 0 0 0 0 0 0 0 0 0 0 0 0 30 0
0 0 0 0 0 0 0 0 0 0 0 0 0 0 0 0 0 0 0 0 0 180 200 153 196 344 392 299 217 344 544 660 543 483 655 814 718 653 740 419 150 0 0 0 0 130 226 19 10 0 0 0 0 0 0 0 0 0 0 0 0 0 0
0 0 0 0 0 0 0 0 0 0 0 0 0 0 0 0 0 0 0 0 0 0 0 0 0 0 0 0 345 340 120 34 32 164 330 350 246 304 267 106 0 0 0 0 0 0 0 0 0 0 0 0 0 0 0 0 0 0 0 0 0 0 0
0 0 0 0 0 0 0 0 0 0 0 0 0 0 0 0 0 0 0 0 0 0 0 0 0 0 0 0 0 0 0 0 0 0 0 0 0 0 0 0 0 0 0 0 0 0 0 0 0 0 0 0 0 0 0 0 0 0 0 0 0 0 0
0 0 3 0 0 0 0 0 0 0 0 0 0 0 0 0 0 0 0 0 0 0 0 0 0 0 0 0 0 0 0 0 0 0 0 0 0 0 0 0 0 0 0 0 0 0 0 0 0 0 0 0 0 0 0 0 0 0 0 0 0 0 0
0 0 1 0 0 0 0 0 0 0 0 0 0 0 0 0 0 0 0 0 0 0 0 0 0 0 0 0 0 0 0 0 0 0 0 0 0 0 0 0 0 0 0 0 0 0 0 0 0 0 0 0 0 0 0 0 0 0 0 0 0 0 0
0 0 0 0 0 0 0 0 0 0 0 0 0 0 0 0 0 0 0 0 0 0 0 0 0 0 0 0 0 0 0 0 0 0 0 0 0 0 0 0 0 0 0 0 0 0 0 0 0 0 0 0 0 0 0 0 0 0 0 0 0 0 0
0 0 0 0 0 0 0 0 0 0 0 0 0 0 0 0 0 0 0 0 0 0 0 0 0 0 0 0 0 0 0 0 0 0 0 0 0 0 0 0 0 0 0 0 0 0 0 0 0 0 0 0 0 0 0 0 0 0 0 0 0 0 0
0 0 0 0 2 4 0 0 0 0 0 0 0 0 0 0 0 0 0 0 0 0 0 0 0 0 0 0 0 0 0 0 0 0 0 0 0 0 0 0 0 0 0 0 0 0 0 0 0 0 0 0 0 0 0 0 0 0 0 0 0 0 0
2 0 0 0 0 0 0 0 0 0 0 0 0 0 0 0 0 0 0 0 0 0 0 0 0 0 0 0 0 0 0 0 0 0 0 0 0 0 0 0 0 0 0 0 0 0 0 0 0 0 0 0 0 0 0 0 0 0 0 0 0 0 0
1 2 0 0 2 6 0 0 0 0 0 0 0 0 0 0 0 0 0 0 0 0 0 0 0 0 0 0 0 0 0 0 0 0 0 0 0 0 0 0 0 0 0 0 0 0 0 0 0 0 0 0 0 0 0 0 0 0 0 0 0 0 0
0 0 0 0 0 0 0 0 0 0 0 0 0 0 0 0 0 0 0 0 0 0 0 0 0 0 0 0 0 0 0 0 0 0 0 0 0 0 0 0 0 0 0 0 0 0 0 0 0 0 0 0 0 0 0 0 0 0 0 0 0 0 0
0 0 0 0 0 0 0 0 0 0 0 0 0 0 0 0 0 0 0 0 0 0 0 0 0 0 0 0 0 0 0 0 0 0 0 0 0 0 0 0 0 0 0 0 0 0 0 0 0 0 0 0 0 0 0 0 0 0 0 0 0 0 0
0 1 0 0 0 0 0 0 0 0 0 0 0 0 0 0 0 0 0 0 0 0 0 0 0 0 0 0 0 0 0 0 0 0 0 0 0 0 0 0 0 0 0 0 0 0 0 0 0 0 0 0 0 0 0 0 0 0 0 0 0 0 0
0 0 0 0 0 0 0 0 0 0 0 0 0 0 0 0 0 0 0 0 0 0 0 0 0 0 0 0 0 0 0 0 0 0 0 0 0 0 0 0 0 0 0 0 0 0 0 0 0 0 0 0 0 0 0 0 0 0 0 0 0 0 0
13 0 8 9 2 7 4 0 0 0 0 0 0 0 0 0 0 0 0 0 0 0 0 0 0 0 0 0 0 0 0 0 0 0 0 0 0 0 0 0 0 0 0 0 0 0 0 0 0 0 0 0 0 0 0 0 0 0 0 0 0 0 0
205 309 343 0 0 1 0 0 0 0 0 0 0 0 0 0 0 0 0 0 0 0 0 0 3 3 0 0 0 0 0 0 0 0 0 0 0 0 0 0 0 0 0 0 0 0 0 0 0 0 0 0 0 0 0 0 0 0 0 0 0 0 0
128 342 471 391 110 0 0 0 0 0 0 0 0 0 0 0 0 0 0 0 0 0 2 10 26 6 0 0 0 0 15 14 0 0 0 0 0 0 0 0 0 0 0 0 0 0 0 0 0 0 0 0 0 0 0 0 0 0 0 0 0 0 0
35 0 235 292 52 1 5 20 14 0 0 0 0 3 2 2 4 8 2 1 0 0 2 6 0 0 0 0 0 18 8 10 0 0 0 0 0 0 0 0 0 0 0 0 0 8 10 0 0 0 0 0 0 0 0 0 0 0 0 0 0 0 0
2 0 0 0 5 12 13 11 0 0 0 0 0 0 1 13 16 14 6 18 18 12 0 66 0 0 0 0 0 0 0 0 0 0 0 0 0 0 0 0 0 0 0 0 0 0 0 18 1 0 0 0 0 0 0 0 0 0 0 0 0 0 0
1 15 19 22 0 0 0 1 214 12 0 0 0 0 4 1 10 11 2 14 24 0 0 0 0 29 0 0 0 0 0 0 0 0 0 0 0 0 0 0 0 0 0 0 0 0 13 8 3 0 0 0 0 0 0 0 0 0 0 0 0 0 0
0 0 12 14 3 6 12 1 0 4 6 7 0 8 22 14 19 21 0 0 0 0 0 260 261 224 249 171 20 0 0 0 0 0 0 0 0 0 0 0 0 0 0 0 0 7 0 0 1 1 2 0 0 0 0 0 0 0 0 0 0 0 0
11 22 12 4 0 5 17 2 0 0 0 0 0 0 18 0 0 0 0 0 0 37 213 270 261 248 192 34 0 0 0 0 0 0 15 115 102 113 130 146 147 0 0 0 5 0 12 4 5 7 4 4 0 0 0 0 0 0 0 0 0 0 0
90 0 0 30 140 244 0 0 0 0 0 4 2 2 94 127 23 0 0 0 120 124 163 142 67 0 58 268 346 386 406 436 435 428 406 373 330 260 225 226 232 209 174 124 10 0 0 0 5 1 3 2 1 0 0 0 0 0 0 0 0 0 0
273 282 365 380 341 288 0 0 93 124 131 0 0 20 177 7 0 0 0 78 187 169 164 208 219 343 205 159 147 143 129 187 258 306 337 394 432 432 372 288 252 218 167 105 29 6 2 1 1 2 1 8 2 0 0 0 0 0 0 0 0 0 0
544 451 387 316 239 105 122 205 65 84 46 0 0 0 0 0 0 0 27 126 204 233 244 370 255 128 125 43 28 9 4 100 156 209 254 286 311 323 306 290 258 193 99 42 5 7 3 14 7 9 12 14 13 7 1 0 1 0 0 0 0 0 0
0 195 218 163 137 183 224 0 0 0 0 0 0 0 0 200 0 0 0 0 182 293 294 1 0 0 0 0 0 0 0 80 116 143 177 203 225 236 235 214 171 120 80 7 24 10 2 1 4 4 6 5 4 3 3 4 2 0 0 0 0 0 0
0 0 0 0 0 0 0 0 0 0 0 0 0 0 0 0 0 0 30 207 215 201 58 0 0 0 0 0 0 0 0 0 0 0 0 4 30 111 133 144 130 106 95 6 33 22 12 7 2 6 6 4 3 4 6 4 0 0 0 0 0 0 0
0 0 43 0 0 0 0 0 0 0 0 0 0 0 0 0 0 0 60 176 165 137 107 128 53 0 0 0 0 0 0 0 0 0 0 0 0 0 0 0 65 61 61 64 46 25 12 5 4 6 6 7 8 7 6 0 0 0 0 0 0 0 0
0 0 0 0 0 0 0 0 0 0 0 0 0 0 0 0 0 0 0 27 105 100 146 137 104 58 0 0 0 0 0 0 0 0 0 0 0 0 0 0 0 0 0 13 7 6 1 7 6 6 8 14 9 7 2 0 0 0 0 0 0 0 0
0 0 0 0 0 0 0 0 0 0 0 0 0 0 0 0 0 0 0 0 48 166 195 159 105 66 0 0 0 0 0 0 0 0 0 0 0 0 0 0 0 0 0 0 0 2 8 8 2 3 8 6 2 0 0 2 3 2 0 0 0 0 0
0 0 0 0 0 0 0 0 0 0 0 0 0 0 0 0 0 0 34 158 198 224 214 167 118 0 0 0 0 0 0 0 0 0 0 0 0 0 0 0 0 0 1 1 1 2 4 0 8 2 2 0 0 1 1 2 1 0 0 0 0 0 0
0 0 0 0 0 0 0 0 0 0 0 0 0 0 0 0 0 0 0 61 141 152 131 119 110 97 43 0 0 0 0 0 0 0 0 0 0 0 0 0 0 1 2 2 0 2 2 2 3 2 2 2 2 2 0 0 0 0 0 0 0 0 0
0 0 0 0 0 0 0 0 0 0 0 0 0 0 0 0 0 0 0 0 54 99 111 120 123 113 41 0 0 0 0 0 0 0 0 0 0 0 0 0 0 0 0 0 0 1 0 0 1 5 3 3 4 0 0 0 0 0 0 0 0 0 0
0 0 0 0 0 0 0 0 0 0 0 0 0 0 0 0 0 0 0 0 0 68 101 124 125 110 50 0 0 0 0 0 0 0 0 0 0 0 0 0 0 0 1 3 4 4 5 6 4 5 3 0 0 0 0 0 0 0 0 0 0 0 0
0 0 0 0 0 0 0 0 0 0 0 0 0 0 0 0 0 0 0 0 0 38 117 139 133 92 51 0 0 0 0 0 0 0 0 0 0 0 0 0 0 2 2 1 5 8 7 7 1 0 0 0 0 0 0 0 0 0 0 0 0 0 0

ECMWFFLT1_con_mucape_015.txt.gz
CAPE
688 168 123 46 6 0 0 0 0 0 0 69 619 1133 1552 1109 1085 998 1076 1101 1021 933 925 980 996 947 922 1218 1260 1281 1074 972 990 1130 926 602 1002 734 397 550 518 686 824 888 530 134 280 10 0 0 0 0 0 0 0 0 0 0 0 0 0 0 0
161 82 28 3 0 0 0 0 0 0 2 2 106 692 1063 1373 1302 1185 1018 988 1064 1131 1014 978 1032 974 998 1061 1112 1104 1162 1092 1210 1213 1071 862 910 796 662 791 916 870 713 960 990 601 18 0 0 0 0 0 0 0 0 0 0 0 0 0 0 0 0
168 96 65 0 0 10 0 0 0 4 2 58 24 86 324 621 935 1093 1110 977 1152 1016 957 1053 915 944 1007 1120 1115 1331 1299 1336 1270 1146 1261 1034 1114 991 1199 764 368 401 450 86 0 0 0 0 0 0 0 0 0 0 0 0 0 0 0 0 0 0 0
387 298 169 49 0 15 3 0 4 0 0 0 20 3 12 88 316 461 780 826 899 732 593 707 1000 841 728 635 543 778 941 988 1105 985 883 889 1018 1040 746 265 34 27 2 0 0 0 0 0 0 0 0 0 0 0 0 0 0 0 0 0 0 0 0
452 460 471 258 76 28 35 1 0 0 0 0 6 24 2 4 110 137 74 248 438 346 301 318 332 253 197 286 346 465 511 574 604 673 748 600 554 379 138 16 1 0 0 0 0 0 0 0 0 0 0 0 0 0 0 0 0 0 0 0 0 0 0
530 552 454 290 76 44 21 5 22 31 2 51 49 75 0 0 15 115 108 94 14 0 0 0 0 0 224 12 19 52 268 420 563 557 427 68 2 0 0 0 0 0 0 0 0 0 0 0 0 0 0 0 0 0 0 0 0 0 0 0 0 0 0
355 396 311 132 8 15 26 60 109 143 122 250 120 58 0 0 0 0 0 0 0 0 0 0 0 0 0 0 0 0 61 164 126 0 0 0 0 0 0 0 0 0 0 0 0 0 0 0 0 0 0 0 0 0 0 0 0 0 0 0 0 0 0
108 83 80 54 0 8 3 14 10 46 189 73 24 0 0 0 0 0 0 0 0 0 0 0 0 0 0 0 0 0 0 0 0 0 0 0 0 0 0 0 0 0 0 0 0 0 0 0 0 0 0 0 0 0 0 0 0 0 0 0 0 0 0
48 24 2 0 0 2 8 14 2 1 2 0 0 0 0 0 0 0 0 0 0 0 0 0 0 0 0 0 0 0 0 0 0 0 0 0 0 0 0 0 0 0 0 0 0 0 0 0 0 0 0 0 0 0 0 0 0 0 0 0 0 0 0
56 87 29 0 0 0 0 0 0 0 0 0 0 0 0 0 0 0 0 0 0 0 0 0 0 0 0 0 0 0 0 0 0 0 0 0 0 0 0 0 0 0 0 0 0 0 0 0 0 0 0 0 0 0 0 0 0 0 0 0 0 0 0
22 0 0 10 0 0 0 0 0 0 0 0 0 0 0 0 0 0 0 0 0 0 0 0 0 0 0 0 0 0 0 0 0 0 0 0 0 0 0 0 0 0 0 0 0 0 0 0 0 0 0 0 0 0 0 0 0 0 0 0 0 0 0
56 77 62 0 0 1 0 0 0 0 0 0 0 0 0 0 0 0 0 0 0 0 0 0 0 0 0 0 0 0 0 0 0 0 0 0 0 0 0 0 0 0 0 0 0 0 0 0 0 0 0 0 0 0 0 0 0 0 0 0 0 0 0
244 49 13 0 0 6 0 0 0 0 0 0 0 0 0 0 0 0 0 0 0 0 0 0 0 0 0 0 0 0 0 0 0 0 0 0 0 0 0 0 0 0 0 0 0 0 0 0 0 0 0 0 0 0 0 0 0 0 0 0 0 0 0
264 51 4 0 0 0 0 0 0 0 0 0 0 0 0 0 0 0 0 0 0 0 0 0 0 0 0 0 0 0 0 0 0 0 0 0 0 0 0 0 0 0 0 0 0 0 0 0 0 0 0 0 0 0 0 0 0 0 0 0 0 0 0
217 104 16 0 0 0 0 0 0 0 0 0 0 0 0 0 0 0 0 0 0 0 0 0 0 0 0 0 0 0 0 0 0 0 0 0 0 0 0 0 0 0 0 0 0 0 0 0 0 0 0 0 0 0 0 0 0 0 0 0 0 0 0
200 149 43 0 0 0 0 0 0 0 0 0 0 0 0 0 0 0 0 0 0 0 0 0 0 0 0 0 0 0 0 0 0 0 0 0 0 0 0 0 0 0 0 0 0 0 0 0 0 0 0 0 0 0 0 0 0 0 0 0 0 0 0
175 134 67 32 14 26 6 0 0 0 0 0 0 0 0 0 0 0 0 0 0 0 0 0 0 0 0 0 0 0 0 0 0 0 0 0 0 0 0 0 0 0 0 0 0 0 0 0 0 0 0 0 0 0 0 0 0 0 0 0 0 0 0
251 265 289 165 52 7 11 5 0 0 0 0 0 0 0 0 0 0 0 0 0 0 0 0 0 0 0 0 0 0 0 0 0 0 0 0 0 0 0 0 0 0 0 0 0 0 0 0 0 0 0 0 0 0 0 0 0 0 0 0 0 0 0
542 393 414 277 104 39 100 102 65 2 0 0 0 0 0 0 0 0 1 1 3 4 9 14 10 2 2 2 0 0 0 0 0 0 0 0 0 0 0 12 0 0 0 0 0 0 0 0 0 1 2 1 0 0 0 0 0 0 0 0 0 0 0
596 542 337 366 175 27 49 143 43 1 0 0 0 0 0 0 6 6 27 42 48 127 96 57 183 238 151 104 60 26 17 3 0 0 0 0 0 0 0 0 0 0 0 0 0 0 0 0 0 0 0 0 0 0 0 0 0 0 0 0 0 0 0
639 623 624 549 338 114 46 26 15 44 4 43 48 9 23 54 314 208 179 130 121 113 140 289 386 114 88 78 78 140 139 125 117 78 77 20 0 0 0 0 0 0 0 0 0 0 0 0 0 0 0 0 0 0 0 0 0 0 0 0 0 0 0
683 630 621 663 577 360 94 64 35 21 108 165 215 126 101 94 76 137 168 295 178 246 171 220 259 402 94 2 1 23 92 184 229 249 255 208 130 12 0 0 0 0 0 0 0 0 0 0 0 0 0 0 0 0 0 0 0 0 0 0 0 0 0
645 674 639 570 503 390 303 197 78 27 71 152 168 157 84 53 113 168 180 258 301 92 344 202 5 0 0 0 0 1 24 147 90 136 240 238 243 260 112 27 4 0 0 0 0 0 0 0 0 0 0 0 0 0 0 0 0 7 1 0 0 0 0
475 476 462 391 404 302 361 327 196 118 307 57 51 0 0 22 50 48 88 201 188 77 186 3 0 0 0 0 0 12 77 179 311 277 226 255 293 299 357 170 164 176 135 104 66 0 0 0 0 0 12 4 4 1 0 0 0 0 0 0 1 1 0
380 406 377 326 263 237 348 294 130 74 124 175 2 0 0 0 0 0 0 88 320 327 76 0 0 0 0 0 0 52 114 82 137 198 224 203 221 208 214 222 132 80 171 221 220 207 153 108 79 64 57 29 21 16 6 2 0 1 7 8 3 2 1
343 337 297 254 312 234 308 315 92 65 32 266 131 12 35 16 52 58 121 196 335 262 155 0 0 0 0 0 0 0 24 41 46 120 129 106 74 54 48 31 34 16 2 103 156 188 194 180 169 142 105 67 38 28 9 0 0 1 4 0 0 0 0
422 389 293 206 243 288 305 292 168 55 61 49 49 55 57 12 241 241 248 301 276 205 212 5 0 0 0 0 0 0 0 0 0 2 3 0 0 0 0 1 2 3 0 43 88 124 144 171 199 102 0 0 0 0 0 0 0 0 0 1 0 0 0
390 390 363 303 259 303 294 241 190 200 210 81 91 48 10 193 308 275 262 282 258 144 97 0 0 18 0 0 0 0 0 0 0 0 0 0 0 0 0 0 0 0 0 0 0 0 0 0 0 0 0 0 0 0 0 0 0 0 0 0 0 0 0
142 281 384 364 325 317 268 50 48 41 8 20 11 58 32 278 295 212 7 157 146 28 24 14 76 103 118 116 94 0 0 0 0 0 0 0 0 0 0 0 0 0 0 0 0 0 0 0 0 0 0 0 0 0 0 0 0 0 0 0 0 0 0
2 28 55 126 216 295 303 318 314 222 70 121 113 178 172 173 221 98 27 33 21 188 174 51 103 193 128 0 0 0 0 0 0 0 0 0 0 0 0 0 0 0 0 0 0 0 0 0 0 0 0 0 0 0 0 0 0 0 0 0 0 0 0
0 0 0 1 9 100 186 296 346 315 92 4 44 9 20 38 38 47 70 16 127 114 143 174 226 126 8 0 0 0 0 0 0 0 0 0 0 0 0 0 0 0 0 0 0 0 0 0 0 0 0 0 0 0 0 0 0 0 0 0 1 0 0
0 0 0 0 170 169 159 169 180 226 141 13 22 1 0 7 30 40 19 80 161 181 248 251 107 61 3 0 0 0 0 0 0 0 0 0 0 0 0 0 0 0 0 0 0 0 0 0 0 0 0 0 0 0 0 0 0 0 0 0 0 0 0
0 0 0 0 0 6 7 199 227 215 168 63 14 13 25 4 0 0 136 194 226 273 253 123 3 0 0 0 0 0 0 0 0 0 0 0 0 0 0 0 0 0 0 0 0 0 0 0 0 0 0 0 0 0 0 0 0 0 0 0 0 0 0
0 0 0 0 0 0 0 0 0 0 0 60 1 66 33 46 0 0 45 211 244 199 59 77 88 9 0 0 0 0 0 0 0 0 0 0 0 0 0 0 0 0 0 0 0 0 0 0 0 0 0 0 0 0 0 0 0 0 0 0 0 0 0
0 0 0 0 0 0 0 0 0 0 0 0 0 0 0 0 0 0 26 114 0 98 130 144 144 25 0 0 0 0 0 0 0 0 0 0 0 0 0 0 0 0 0 0 0 0 0 0 0 0 0 0 0 0 0 0 0 0 0 0 0 0 0
0 0 0 0 0 0 0 0 0 0 0 0 0 0 0 0 0 0 16 89 118 133 131 130 54 0 0 0 0 0 0 0 0 0 0 0 0 0 0 0 0 0 0 0 0 0 0 0 0 0 0 0 0 0 0 0 0 0 0 0 0 0 0
0 0 0 0 0 0 0 0 0 0 0 1 4 0 0 0 0 0 0 0 68 108 0 0 0 0 0 0 0 0 0 0 0 0 0 0 0 0 0 0 0 0 0 0 0 0 0 0 0 0 0 0 0 0 0 0 0 0 0 0 0 0 0

ECMWFFLT1_con_mucape_021.txt.gz
CAPE
940 713 421 583 359 144 316 80 40 36 159 70 117 192 168 127 306 207 201 207 33 46 11 152 375 369 297 474 584 903 538 673 850 354 389 612 1088 284 1372 878 1133 988 839 880 404 593 203 0 0 0 0 0 0 0 0 0 0 0 0 0 0 1 8
364 383 151 23 90 191 176 38 12 0 156 303 287 354 318 120 25 195 90 84 70 62 0 6 108 75 529 1342 1376 1393 1216 966 1020 1349 1130 892 833 1074 1098 1297 367 672 954 1101 896 299 583 13 0 0 0 0 0 0 0 0 0 0 0 0 0 0 0
404 243 170 105 239 226 175 222 0 4 1 203 336 345 264 224 108 130 173 231 216 107 65 93 234 725 1599 1624 1573 1555 1495 1545 1328 1198 1280 905 844 1006 854 1120 875 484 472 546 772 463 106 60 0 0 0 0 0 0 0 0 0 0 0 0 0 0 0
419 390 339 76 98 202 50 24 73 50 52 60 340 364 224 250 244 308 326 242 274 177 121 125 266 548 1596 1600 1655 1702 1589 1345 1075 1245 1168 1178 898 846 707 622 617 316 434 602 360 375 121 4 0 0 0 0 0 0 0 0 0 0 0 0 0 0 0
406 422 290 220 69 121 106 32 59 53 96 76 224 260 211 136 220 389 319 231 190 226 152 76 141 272 602 858 1257 1379 1377 1370 1242 1095 1156 1194 882 844 699 317 258 78 10 7 0 8 19 4 1 0 0 0 0 0 0 0 0 0 0 0 0 0 0
231 649 364 146 155 40 3 16 0 27 7 76 146 77 75 57 97 245 243 213 173 209 196 168 250 297 224 325 1124 1383 1142 1064 1014 976 1008 1256 1056 806 141 6 2 3 1 0 0 0 1 5 0 0 0 0 0 0 0 0 0 0 0 0 0 0 0
1076 753 614 225 75 54 0 0 5 0 47 201 120 62 41 94 236 260 302 278 110 116 190 206 92 7 39 26 1025 1260 1144 971 688 576 444 158 41 37 2 0 0 0 0 0 0 0 0 0 0 0 0 0 0 0 0 0 0 0 0 0 0 0 0
1032 703 496 168 61 11 4 9 13 40 142 159 114 106 69 139 158 189 144 125 93 170 162 121 35 26 7 2 40 27 3 0 0 0 0 0 0 0 0 0 0 0 0 0 0 0 0 0 0 0 0 0 0 0 0 0 0 0 0 0 0 0 0
1019 889 384 24 37 45 12 3 24 96 112 36 19 17 15 29 14 0 0 1 22 67 34 22 16 2 2 3 1 0 0 0 0 0 0 0 0 0 0 0 0 0 0 0 0 0 0 0 0 0 0 0 0 0 0 0 0 0 0 0 0 0 0
1127 770 281 161 88 93 92 98 119 130 65 19 19 21 35 14 0 0 0 0 0 3 0 0 0 0 0 0 0 0 0 0 0 0 0 0 0 0 0 0 0 0 0 0 0 0 0 0 0 0 0 1 10 0 8 1 0 0 0 0 0 0 0
1064 872 508 268 139 105 224 334 260 34 14 13 8 5 45 29 1 0 0 0 0 0 0 0 0 0 0 0 0 0 0 0 0 0 0 0 0 0 0 0 0 0 0 0 0 0 0 0 0 0 0 0 0 13 8 5 0 0 0 0 0 0 0
1347 863 217 33 0 0 0 11 11 48 10 0 0 4 8 0 0 0 0 0 0 0 0 0 0 0 0 0 0 0 0 0 0 0 0 0 0 0 0 0 0 0 0 0 0 0 0 0 0 0 0 0 6 13 7 0 0 0 0 0 0 0 0
1041 269 28 43 1 0 0 0 18 148 6 0 5 14 0 0 0 0 0 0 0 0 0 0 0 0 0 0 0 0 0 0 0 0 0 0 0 0 0 0 0 0 0 0 0 0 0 0 0 0 0 0 0 0 0 0 0 0 0 0 0 0 0
781 256 194 52 45 12 1 0 0 13 14 2 1 0 0 0 0 0 0 0 0 0 0 0 0 0 0 0 0 0 0 0 0 0 0 0 0 0 0 0 0 0 0 0 0 0 0 0 0 0 0 0 0 0 0 0 0 0 0 0 0 0 0
724 427 355 225 139 190 146 58 52 0 4 2 0 0 0 0 0 0 0 0 0 0 0 0 0 0 0 0 0 0 0 0 0 0 0 0 0 0 0 0 0 0 0 0 0 0 0 0 0 0 0 2 0 0 0 2 1 0 0 0 0 0 0
728 581 424 470 220 200 619 502 312 23 0 0 0 0 0 0 0 0 0 0 0 0 0 0 0 0 0 0 0 0 0 0 0 0 0 0 0 0 0 0 0 0 0 0 0 0 0 0 0 4 1 0 0 0 0 0 1 5 0 0 0 0 0
611 480 487 423 228 533 586 442 275 78 1 0 0 0 0 0 0 0 0 0 0 0 0 0 0 0 0 0 0 0 0 0 0 0 0 0 0 0 0 0 0 0 0 0 0 0 0 0 0 2 0 3 0 0 0 0 0 8 0 6 0 0 0
653 533 455 259 380 626 666 469 360 113 33 9 0 2 0 0 0 0 0 0 0 0 0 0 0 0 0 0 0 0 0 0 0 0 0 0 0 0 0 4 0 0 0 20 5 0 0 0 0 1 0 1 3 0 0 0 6 0 2 1 5 0 0
892 679 662 581 532 670 606 388 399 404 94 84 0 10 40 0 0 0 0 0 0 0 0 0 0 0 1 26 36 18 39 61 61 42 53 12 0 9 37 44 54 47 49 70 65 32 16 34 4 0 1 0 0 1 0 2 3 4 2 2 0 3 1
931 904 741 696 662 696 705 493 385 345 278 186 153 48 17 0 0 0 0 0 0 0 0 0 0 0 0 7 41 95 134 148 152 182 124 98 136 95 82 99 143 105 177 152 88 29 22 24 25 23 5 2 0 8 0 0 0 2 1 2 2 5 11
1017 976 767 791 822 866 777 572 498 370 359 348 372 310 67 5 20 0 0 0 0 0 0 0 0 0 0 23 159 310 429 453 457 580 567 495 442 354 290 268 184 164 148 230 244 158 85 17 40 120 64 11 1 0 0 0 0 0 0 0 1 6 4
1167 1054 808 995 960 864 830 707 571 437 580 538 605 486 351 160 81 12 1 0 0 0 0 0 2 19 20 216 418 485 809 795 789 821 734 699 708 730 520 484 497 408 827 100 0 64 124 52 317 307 209 113 1 1 0 0 0 0 0 1 1 8 6
1292 1340 1324 1228 1035 1107 1009 819 761 716 782 791 722 652 615 525 317 143 53 24 16 8 0 30 802 0 16 335 362 423 788 574 490 387 393 368 480 497 552 521 707 292 0 0 0 0 0 0 0 5 167 144 106 41 8 0 0 0 0 0 0 8 8
1467 1370 857 965 1269 1165 1007 1064 1005 844 758 867 857 891 267 755 707 443 173 239 134 258 272 716 0 0 0 0 344 379 314 430 244 287 164 143 234 721 406 165 778 476 122 352 260 127 0 0 0 0 0 0 0 19 42 1 5 3 2 1 2 4 2
1190 1248 1292 1274 1285 1246 1248 1250 1261 1217 1109 992 923 892 959 689 811 794 621 483 427 611 735 887 345 0 0 0 0 448 271 54 76 132 45 37 198 536 610 505 343 419 439 772 528 384 0 0 0 0 0 0 0 0 0 0 4 0 0 0 0 1 3
1140 1147 1202 1142 1160 1156 1072 1143 1087 1089 1143 1091 893 729 646 890 922 894 925 744 724 855 1268 764 474 0 0 0 0 4 101 70 12 28 2 4 71 217 365 146 36 104 180 153 30 30 310 179 0 0 0 0 0 0 0 55 0 0 0 0 0 0 0
672 937 1002 989 946 964 968 1006 1152 1058 1040 885 808 878 1002 1033 772 876 916 931 1087 1244 935 480 0 0 0 0 0 4 62 233 133 49 64 283 323 140 184 134 5 52 474 167 112 385 252 54 0 0 0 0 0 0 0 0 0 0 0 0 0 0 0
635 817 966 1010 961 914 922 1000 1062 1163 1086 1067 1043 893 828 512 681 689 776 807 1019 792 643 343 7 0 0 0 0 0 64 224 443 550 532 436 402 283 149 84 8 153 308 131 29 0 216 140 0 0 0 0 0 0 0 0 0 0 0 0 0 0 0
0 36 322 703 851 1042 1140 1112 1130 1182 1176 1220 1207 1058 750 763 615 643 654 715 177 368 304 50 71 42 35 42 12 0 17 217 981 608 363 438 274 22 6 12 8 64 6 0 0 0 0 35 6 0 0 0 0 0 0 0 0 0 0 0 0 0 0
0 0 0 52 258 601 758 819 1008 1226 1323 1299 1298 1342 1034 648 538 527 574 550 511 720 654 677 238 108 77 93 55 42 14 349 329 325 22 0 0 0 28 64 2 1 0 0 0 0 0 7 11 0 0 0 0 0 0 0 0 0 0 0 0 0 0
0 0 0 0 3 55 211 377 485 678 845 1058 1309 1392 1424 1194 1169 1144 894 576 585 562 473 537 461 482 84 115 108 71 71 42 42 26 2 0 0 1 343 0 14 0 0 0 0 0 0 0 0 0 0 0 0 0 0 0 0 0 0 0 0 0 0
0 0 0 0 0 13 43 120 260 391 509 698 793 1062 1164 1209 1190 1115 1063 947 880 709 908 508 508 369 334 108 70 44 10 14 37 3 0 0 1 3 2 0 0 0 0 0 0 0 0 0 0 0 0 0 0 0 0 0 0 0 0 0 0 0 0
0 0 0 0 0 0 1 16 50 176 494 478 572 994 1102 1160 1188 1190 1117 1011 1076 774 846 481 405 333 251 79 35 68 12 12 11 6 3 9 20 49 6 0 0 0 0 0 0 0 0 0 90 0 0 0 0 0 0 0 0 0 0 0 0 0 0
0 0 0 0 0 0 0 0 10 52 174 334 387 542 833 1065 1132 1141 1093 1048 975 804 678 796 383 266 138 80 82 47 17 14 12 10 18 1 0 0 0 0 0 0 0 0 0 0 0 0 0 0 0 0 0 0 0 0 0 0 0 0 0 0 0
0 0 0 0 0 0 0 0 1 30 78 109 330 629 520 706 1006 1025 950 911 852 791 529 431 411 237 97 69 84 70 19 17 7 16 9 1 4 0 0 0 0 0 0 0 0 0 0 0 0 0 0 0 0 0 0 0 0 0 0 0 0 0 0
0 0 0 0 0 0 0 0 3 10 52 164 184 372 683 626 597 723 748 840 860 684 774 407 367 77 14 28 20 83 76 8 0 1 2 4 4 0 0 0 0 0 0 0 0 0 0 0 0 0 0 0 0 0 0 0 0 0 0 0 0 0 0
0 0 0 0 0 0 0 0 0 2 16 92 181 145 290 577 647 504 626 803 808 734 631 390 292 37 0 0 0 7 0 0 0 37 8 3 6 0 0 0 0 0 0 0 0 0 0 0 0 0 0 0 0 0 0 0 0 0 0 0 0 0 0

ECMWFFLT1_con_mucape_024.txt.gz
CAPE
860 705 753 296 514 362 394 233 222 111 174 128 484 290 447 512 538 579 770 909 1180 825 911 832 704 925 909 758 985 587 342 496 534 574 750 476 754 735 907 1103 1286 800 894 567 1070 1265 32 6 1 0 0 0 0 0 0 0 0 0 23 87 97 201 48
558 428 151 266 430 430 249 258 292 117 313 834 339 279 252 127 221 43 161 368 274 519 177 695 841 497 642 1240 1282 1380 1423 1168 1044 1226 1096 836 848 668 701 795 757 844 1012 1081 714 649 789 5 0 0 0 0 0 0 0 0 0 0 0 0 0 0 0
578 646 195 384 364 446 134 78 105 404 212 359 698 426 440 305 498 440 371 308 724 304 246 476 703 893 1432 1267 1239 1431 1709 1225 1025 1286 665 746 931 704 868 916 762 763 726 588 877 561 424 89 0 0 0 0 0 0 0 0 0 0 0 0 0 0 0
722 466 209 278 244 519 211 155 617 427 891 452 315 1026 374 327 443 447 390 289 329 507 484 366 695 1161 1335 1603 1896 1595 1421 1412 1527 1420 1462 1424 938 613 406 444 790 1143 672 320 454 197 141 60 0 0 0 0 0 0 0 0 0 0 0 0 0 0 0
636 484 323 400 162 195 141 290 240 380 488 258 954 410 389 315 795 485 440 634 671 400 355 441 489 556 942 1345 1545 1725 1610 1508 1503 1478 1541 1095 551 279 486 375 487 343 397 308 246 430 334 0 0 0 0 0 0 0 0 0 0 0 0 0 0 0 0
622 589 347 246 361 232 288 229 31 244 124 424 353 403 66 164 374 356 816 526 502 494 471 207 297 676 722 843 1110 1065 943 815 1225 1081 767 598 1211 955 557 578 430 283 181 253 329 378 294 46 0 0 0 0 0 0 0 0 0 0 0 0 0 0 0
837 716 432 212 311 366 381 80 214 133 420 534 360 222 136 176 644 532 370 298 314 318 368 542 476 308 530 314 562 687 590 750 733 526 556 474 617 393 896 0 0 0 0 0 0 25 10 18 120 15 0 0 0 0 0 0 0 0 0 0 0 0 0
981 991 933 424 488 201 156 113 676 519 655 398 496 337 344 230 352 457 386 343 450 570 368 218 361 213 286 55 164 460 388 330 342 197 150 16 0 0 0 0 0 0 0 0 0 0 0 58 21 0 0 0 2 3 0 0 0 0 0 0 0 0 0
895 966 427 334 470 483 384 420 648 690 467 194 161 159 97 170 26 10 18 118 168 230 230 292 194 267 291 118 6 0 0 0 1 0 0 0 0 0 0 0 0 0 0 0 0 0 5 3 1 0 0 0 10 0 0 0 0 0 0 0 0 0 0
1144 738 353 406 364 332 384 586 735 428 200 114 38 51 65 42 55 45 23 14 41 119 56 0 0 1 7 0 6 3 0 0 0 0 0 0 0 0 0 0 0 0 0 0 0 0 0 18 15 315 22 25 42 8 1 0 0 0 0 0 0 0 0
1064 679 405 336 412 665 686 524 326 208 125 62 26 0 134 27 0 0 0 3 7 0 0 0 0 0 0 0 0 0 0 0 0 0 0 0 7 66 12 0 0 0 0 0 0 0 0 0 0 32 3 6 12 26 41 0 0 0 0 0 0 0 0
1071 659 501 460 533 624 589 363 225 220 98 3 2 0 0 0 0 0 0 0 0 0 0 0 0 0 0 0 0 0 0 0 0 0 0 11 5 8 10 6 3 13 36 8 9 18 46 56 18 0 6 6 18 61 0 0 0 0 0 0 0 0 0
871 504 318 215 156 141 203 258 246 139 36 0 0 0 0 0 0 0 0 0 0 0 0 0 0 0 0 0 0 0 0 0 0 0 0 4 3 4 1 1 0 1 36 4 0 0 0 0 15 20 4 3 1 97 12 0 0 0 0 0 0 0 0
922 264 177 100 18 11 21 116 301 130 1 1 0 0 0 0 0 0 0 0 0 0 0 0 0 0 0 0 0 0 0 0 0 0 0 0 0 0 0 0 0 0 0 0 10 30 0 0 0 1 0 0 0 1 16 0 0 0 0 0 0 0 0
625 209 236 177 54 39 9 52 162 39 9 6 0 0 0 0 0 0 0 0 0 0 0 0 0 0 0 0 0 0 0 0 0 0 0 0 1 0 0 0 0 0 0 1 0 0 0 0 0 0 0 0 0 0 0 0 0 0 0 0 0 0 0
668 375 492 384 182 20 35 42 0 21 18 23 0 0 0 0 0 0 0 0 0 0 0 0 0 0 0 0 0 0 10 0 0 10 10 0 0 0 0 0 0 0 0 0 2 0 0 0 0 0 0 0 0 0 0 1 0 0 0 0 0 0 0
840 530 533 456 438 378 211 175 14 1 3 0 0 0 1 0 0 0 0 0 0 0 0 0 0 0 0 0 0 0 0 0 0 0 0 0 0 0 0 1 2 35 3 0 68 0 0 1 7 1 0 0 0 0 0 2 16 31 5 0 0 0 0
892 832 805 374 407 749 757 512 385 12 15 7 0 0 0 0 0 0 5 0 0 0 0 0 0 0 0 0 1 8 0 0 5 1 0 0 0 22 20 68 0 32 43 121 11 51 18 0 0 28 0 0 0 8 32 0 0 3 16 5 4 0 0
769 733 717 622 627 808 706 538 476 198 6 0 33 11 0 0 0 0 0 0 0 0 0 0 0 0 0 0 26 14 14 48 59 24 173 4 17 170 89 175 205 87 32 184 216 129 248 118 70 36 71 45 1 0 2 22 0 0 0 1 0 0 0
857 703 740 677 685 754 777 603 471 337 81 37 51 57 31 0 0 0 0 0 0 0 0 0 0 22 6 9 56 100 320 208 249 358 92 87 78 135 140 227 274 267 210 164 180 94 58 74 19 92 115 147 6 69 46 0 0 1 19 1 0 1 1
1110 968 848 860 725 715 773 690 552 464 433 255 80 8 82 34 15 0 0 0 0 0 2 0 0 31 15 164 204 291 412 368 291 438 300 297 465 439 612 482 480 507 323 86 258 375 508 540 377 148 307 35 52 46 0 40 0 0 0 0 2 4 0
1201 1207 906 931 933 977 887 906 781 582 605 596 623 196 132 70 109 7 16 10 0 2 0 0 1 1 0 83 269 372 522 484 553 534 520 703 444 323 395 688 574 419 12 0 0 0 0 0 58 280 471 321 191 11 22 0 0 0 0 0 0 0 0
1155 1050 946 1006 900 1062 994 1023 1017 740 644 544 589 637 504 235 116 84 52 50 7 86 21 97 99 0 1 58 274 408 791 866 787 663 661 618 396 413 394 372 651 368 1 0 0 0 0 0 0 0 0 4 146 220 147 15 0 0 0 0 0 0 0
927 934 982 1175 1266 910 793 1043 1190 900 800 804 734 766 641 533 481 307 71 59 66 155 183 315 0 0 0 4 534 811 936 837 691 603 527 645 638 525 447 272 506 346 174 203 101 0 0 0 0 0 0 0 0 0 7 132 2 0 2 0 0 0 0
747 816 977 1066 959 792 1041 749 922 1058 1148 1093 1043 1003 1018 786 554 714 703 430 335 198 86 441 0 0 0 166 448 789 868 763 674 657 568 490 476 608 596 501 303 515 512 444 788 534 318 95 0 0 0 0 0 0 0 0 0 5 0 0 0 0 0
774 918 778 741 596 958 758 691 852 884 975 1310 1317 1218 1207 1139 973 919 996 751 515 329 45 241 0 0 0 0 220 611 631 647 548 567 465 413 214 647 570 580 322 177 176 187 251 316 403 214 0 0 0 0 0 0 0 0 0 0 0 0 0 0 0
490 567 770 751 819 694 756 768 970 776 745 1045 1372 1257 1169 1057 1054 1114 862 890 691 390 249 550 389 97 0 0 131 445 476 416 364 252 173 65 90 426 219 174 102 25 95 208 26 80 13 0 0 0 0 0 0 0 0 0 0 0 0 0 0 0 0
160 360 441 592 603 650 548 541 752 667 770 1023 1274 1166 1116 1309 1040 681 686 803 478 439 418 530 683 576 316 0 0 389 329 300 369 274 200 162 260 341 379 193 59 30 16 145 1 88 32 0 0 0 0 0 0 0 0 0 0 0 0 0 0 0 0
0 0 0 249 593 618 741 817 1041 1085 1109 1293 1170 1119 1093 1124 889 756 647 847 434 457 458 109 498 731 754 488 206 159 7 40 166 361 306 646 683 488 396 246 6 25 146 16 0 0 0 24 0 0 0 0 0 0 0 0 0 0 0 0 0 0 0
0 0 0 0 1 59 470 579 794 960 1040 1184 1267 1219 1133 1096 984 907 925 790 496 469 487 488 494 563 659 702 548 330 87 83 84 62 273 445 485 350 206 4 13 3 1 6 2 38 0 51 48 0 0 0 0 0 0 0 0 0 0 0 0 0 0
0 0 0 0 0 2 7 53 226 443 557 685 1112 884 792 890 843 810 781 680 540 489 481 421 389 391 507 552 521 438 237 0 2 10 206 149 9 39 0 13 6 6 2 14 0 0 0 71 31 3 0 0 0 0 0 0 0 0 0 0 0 0 0
0 0 0 0 0 0 0 0 7 23 188 471 423 596 845 848 720 657 686 633 593 506 500 554 456 411 421 438 422 355 175 51 126 29 14 66 33 8 25 60 20 5 34 0 0 0 0 0 7 16 1 0 0 0 0 0 0 0 0 0 0 0 0
0 0 0 0 0 0 0 0 0 0 4 3 30 121 243 362 618 813 704 685 639 594 574 494 431 522 506 461 471 458 363 272 229 40 108 48 2 47 52 27 2 23 48 1 0 0 0 0 8 16 0 0 0 0 0 0 0 0 0 0 0 0 0
0 0 0 0 0 0 0 0 0 0 0 0 1 24 113 327 443 708 767 528 446 517 544 469 475 552 556 517 492 526 498 400 270 10 44 84 32 65 45 14 12 0 0 0 0 0 0 0 0 0 0 0 0 0 0 0 0 0 0 0 0 0 0
0 0 0 0 0 0 0 0 0 0 0 0 3 38 87 78 111 216 594 868 702 686 379 588 626 628 615 623 626 591 79 0 0 0 2 1 0 17 60 23 10 0 0 0 0 0 0 0 0 0 0 0 0 0 0 0 0 0 0 0 0 0 0
0 0 0 0 0 0 0 0 0 0 0 0 0 0 0 58 188 283 409 497 330 385 556 436 604 784 763 696 601 500 376 151 0 0 0 18 11 35 23 32 0 0 0 0 0 0 0 0 0 0 0 0 0 0 0 0 0 0 0 0 0 0 0
0 0 0 0 0 0 0 0 0 0 0 0 0 0 0 28 68 110 257 407 462 437 527 352 439 628 676 612 502 402 299 232 178 160 0 68 50 6 0 0 0 0 0 0 0 0 0 0 0 0 0 0 0 0 0 0 0 0 0 0 0 0 0

ECMWFFLT1_con_mucape_027.txt.gz
CAPE
340 282 205 161 211 57 1 0 0 0 158 676 778 823 854 852 891 950 1040 910 911 634 577 493 783 945 883 825 543 615 429 411 191 2 292 297 289 406 763 668 724 578 132 504 61 0 0 0 0 0 0 0 0 0 0 0 0 0 1 16 87 0 0
223 203 236 189 3 0 0 0 0 10 36 1 13 173 496 529 492 498 634 713 823 643 484 333 350 572 667 763 720 445 61 322 33 177 372 347 472 423 618 487 575 478 326 185 49 0 0 0 5 1 0 0 0 0 0 0 0 0 0 0 0 0 0
185 213 146 0 1 0 0 0 0 0 30 202 150 101 71 114 250 79 8 13 57 271 469 445 413 544 531 480 590 407 100 308 84 369 334 261 575 209 460 601 606 357 354 164 30 18 0 3 8 6 2 0 0 0 0 0 0 0 0 0 0 0 0
61 21 0 0 0 0 0 0 0 29 15 38 59 50 46 46 102 202 47 0 2 270 442 581 706 706 666 700 672 442 317 346 365 407 476 393 464 219 477 619 567 305 262 184 40 96 1 2 1 0 0 0 0 0 0 0 0 0 0 0 0 0 0
27 17 1 4 0 0 2 38 6 0 3 12 0 0 34 106 67 145 132 64 88 17 24 454 619 632 599 598 674 694 688 758 696 534 426 32 130 410 399 458 508 375 198 70 63 89 0 0 0 0 0 0 0 0 0 0 0 0 0 0 0 0 0
9 5 6 4 0 0 0 0 0 0 0 2 0 0 6 24 36 97 10 6 9 8 0 24 563 721 631 524 616 835 810 781 700 526 384 66 200 225 208 202 307 442 259 165 126 37 0 0 0 0 0 0 0 0 0 0 0 0 0 0 0 0 0
13 16 0 7 0 0 0 0 0 0 0 0 0 0 0 112 13 8 8 1 0 7 8 173 292 573 743 661 688 652 644 575 458 305 1 8 31 132 79 28 293 77 137 105 109 103 40 0 0 0 0 0 0 0 0 0 0 0 0 0 0 0 0
6 0 2 0 0 0 0 0 0 0 0 0 0 4 3 6 12 2 9 22 17 0 0 20 16 331 485 412 472 459 333 249 223 164 0 0 0 0 0 0 0 0 0 0 0 0 38 0 0 0 0 0 0 0 0 0 0 0 0 0 0 0 0
116 6 1 0 0 0 5 16 9 2 0 0 0 0 0 0 0 0 0 0 3 0 0 0 0 51 99 111 0 0 0 0 0 0 0 0 0 0 0 0 0 0 0 0 0 0 0 0 0 0 0 0 0 0 0 0 0 0 0 0 0 0 0
106 0 0 0 0 2 2 1 0 0 0 0 0 0 0 0 0 0 0 0 0 0 0 0 0 0 0 0 0 0 0 0 0 0 0 0 0 0 0 0 0 0 0 0 0 0 0 0 0 0 0 0 0 0 0 0 0 0 0 0 0 0 0
2 0 0 13 15 7 0 0 0 0 0 0 0 0 0 0 0 0 0 0 0 0 0 0 0 0 0 0 0 0 0 0 0 0 0 0 0 0 0 0 0 0 0 0 0 0 0 0 0 0 0 0 0 0 0 0 0 0 0 0 0 0 0
0 0 12 20 0 0 0 0 0 0 0 0 0 0 0 0 0 0 0 0 0 0 0 0 0 0 0 0 0 0 0 0 0 0 0 0 0 0 0 0 0 0 0 0 0 0 0 0 0 0 0 0 0 0 0 0 0 0 0 0 0 0 0
0 2 15 5 0 0 0 0 0 0 0 0 0 0 0 0 0 0 0 0 0 0 0 0 0 0 0 0 0 0 0 0 0 0 0 0 0 0 0 0 0 0 0 0 0 0 0 0 0 0 0 0 0 0 0 0 0 0 0 0 0 0 0
0 0 0 0 0 0 0 0 0 0 0 0 0 0 0 0 0 0 0 0 0 0 0 0 0 0 0 0 0 0 0 0 0 0 0 0 0 0 0 0 0 0 0 0 0 0 0 0 0 0 0 0 0 0 0 0 0 0 0 0 0 0 0
0 0 0 0 0 0 0 0 0 0 0 0 0 0 0 0 0 0 0 0 0 0 0 0 0 0 0 0 0 0 0 0 0 0 0 0 0 0 0 0 0 0 0 0 0 0 0 0 0 0 0 0 0 0 0 0 0 0 0 0 0 0 0
0 0 0 0 0 0 0 0 0 0 0 0 0 0 0 0 0 0 0 0 0 0 0 0 0 0 0 0 0 0 0 0 0 0 0 0 0 0 0 0 0 0 0 0 0 0 0 0 0 0 0 0 0 0 0 0 0 0 0 0 0 0 0
248 0 0 0 0 0 0 0 0 0 0 0 0 0 0 0 0 0 0 0 0 0 0 0 0 0 0 0 0 0 0 0 0 0 0 0 0 0 0 0 0 0 0 0 0 0 0 0 0 0 0 0 0 0 0 0 0 0 0 0 0 0 0
230 222 233 139 0 0 0 0 0 0 0 0 0 0 0 0 0 0 0 0 0 0 0 0 0 0 0 0 0 0 0 0 0 0 0 0 0 0 0 0 0 0 0 0 0 0 0 0 0 0 0 0 0 0 0 0 0 0 0 0 0 0 0
380 398 394 392 294 52 90 0 0 0 0 0 0 0 0 0 0 0 0 0 0 0 0 0 0 0 0 0 0 0 0 0 0 0 0 0 0 0 0 0 0 0 0 1 14 0 0 0 0 0 0 0 0 0 0 0 0 0 0 0 0 0 0
513 544 565 586 524 425 277 16 35 0 0 0 0 0 0 0 0 0 0 0 0 0 0 0 0 0 0 0 0 0 0 0 0 0 0 0 0 0 0 0 0 0 6 8 14 6 4 18 0 0 0 0 0 0 0 0 0 0 0 0 0 0 0
616 634 777 669 508 416 287 91 26 2 0 0 0 0 0 0 0 0 0 0 0 0 0 0 0 0 0 0 0 0 0 0 0 0 0 2 16 193 204 74 2 82 38 39 1 5 6 59 20 12 4 0 0 0 0 0 0 0 0 0 0 0 0
531 774 585 395 380 400 227 158 212 156 33 0 0 0 0 0 0 0 0 0 0 0 0 0 0 0 0 0 0 0 0 0 0 0 20 2 0 52 52 1 0 10 24 24 24 0 0 0 0 9 0 0 0 0 0 0 0 0 0 0 0 0 0
552 329 486 503 393 530 454 337 369 270 151 65 0 0 0 0 0 0 0 0 0 0 0 0 0 0 0 0 0 0 0 0 7 2 25 11 0 3 20 0 0 2 0 0 0 0 0 0 0 0 0 0 4 3 0 0 0 0 0 0 0 0 0
398 498 795 673 663 649 609 530 628 589 485 110 73 4 0 0 0 0 0 0 0 0 0 0 0 0 0 0 0 0 0 0 9 4 28 5 6 0 19 20 0 0 0 0 0 0 0 0 0 0 0 0 0 0 0 0 0 0 0 0 0 0 0
390 389 411 627 696 703 698 649 486 505 432 634 698 474 154 111 95 82 27 0 0 0 0 0 0 0 0 0 0 0 21 24 102 29 387 410 388 119 1 20 38 0 0 0 0 0 0 0 0 0 0 0 0 0 0 0 0 0 0 0 0 0 0
151 358 417 496 581 654 748 675 609 477 514 515 623 794 654 645 548 540 414 22 0 0 0 0 0 0 0 0 0 30 161 408 454 408 425 450 454 437 429 416 377 18 104 129 276 0 0 0 0 0 0 0 0 0 0 0 0 0 0 0 0 0 0
169 360 241 353 465 439 460 444 521 548 502 534 564 656 836 778 695 690 585 418 292 158 0 0 0 0 0 0 0 26 399 537 588 588 532 491 456 458 503 526 494 245 0 34 4 0 0 0 79 0 0 0 0 0 0 0 0 0 0 0 0 0 0
68 0 0 42 179 88 190 264 262 253 359 418 473 570 616 764 721 726 687 637 521 358 321 57 0 0 0 0 0 428 518 544 590 631 633 607 574 520 467 417 404 388 0 0 0 0 0 0 0 0 0 0 0 0 0 0 0 0 0 0 0 0 0
0 0 0 0 0 0 0 202 188 222 282 330 374 594 840 844 768 744 632 648 641 620 572 440 325 144 0 0 0 373 504 600 631 643 650 636 602 563 505 406 276 0 0 0 0 0 0 0 0 0 2 3 1 0 0 0 0 0 0 0 0 0 0
5 0 0 0 0 0 0 0 0 0 0 0 103 398 606 722 824 860 818 752 697 641 631 613 536 440 320 96 63 229 399 453 474 487 482 464 467 450 298 67 8 10 4 18 20 4 7 9 12 51 86 34 3 0 0 0 0 0 0 0 0 0 0
0 0 0 0 0 0 0 0 0 0 0 0 0 170 687 698 752 801 777 765 728 726 704 682 647 584 508 439 427 353 166 105 400 378 354 168 139 414 28 0 353 298 158 34 12 14 19 33 82 162 94 0 2 0 0 0 0 0 0 0 0 0 0
0 0 0 0 0 0 0 0 0 0 0 0 0 0 0 272 596 644 719 779 774 707 690 655 602 573 548 567 544 465 440 430 405 155 131 134 0 0 244 432 371 123 290 229 114 18 21 65 157 0 30 0 2 1 0 0 0 0 0 0 0 0 0
0 0 0 0 0 0 0 0 0 0 0 0 0 0 0 0 0 23 365 462 502 608 620 596 579 607 584 520 494 484 428 479 514 520 446 437 386 0 0 0 0 9 130 151 121 92 13 6 17 18 13 0 0 0 0 0 0 0 0 0 0 0 0
0 0 0 0 0 0 0 0 0 0 0 0 0 0 0 0 0 0 0 14 325 501 556 579 589 592 607 608 588 559 528 464 447 461 505 512 82 0 0 0 0 0 0 34 21 106 16 21 1 19 0 8 0 0 0 0 0 0 0 0 0 0 0
0 0 0 0 0 0 0 0 0 0 0 0 0 0 0 0 0 0 0 0 0 223 483 509 531 569 582 604 608 596 578 550 510 462 443 401 382 341 312 287 241 0 0 0 76 93 48 14 9 50 0 33 23 0 0 0 0 0 0 0 0 0 0
0 0 0 0 0 0 0 0 0 0 0 0 0 0 0 0 0 0 0 0 0 0 0 390 506 542 561 569 582 577 557 534 494 508 529 550 511 420 318 0 0 0 0 0 57 59 72 2 37 40 38 49 38 23 8 0 0 0 0 0 0 0 0
0 0 0 0 0 0 0 0 0 0 0 0 0 0 0 0 0 0 0 0 0 0 0 9 492 541 513 516 506 485 499 528 565 574 577 587 572 449 329 232 132 0 0 0 12 36 50 8 0 0 0 33 31 26 10 0 0 0 0 0 0 0 0

ECMWFFLT1_con_mucape_030.txt.gz
CAPE
364 474 550 512 565 608 566 512 507 549 644 699 673 686 662 656 642 554 564 681 697 810 947 971 933 895 696 429 356 51 0 0 0 0 261 401 495 486 721 582 543 153 0 0 0 0 0 0 0 0 0 0 0 0 109 291 246 2 0 0 0 0 0
407 444 419 380 412 452 451 446 503 533 567 612 659 721 761 715 694 583 524 610 707 798 834 1034 1028 1017 839 498 459 412 418 387 199 0 180 355 398 464 614 486 375 108 0 0 0 0 0 0 0 0 0 0 0 0 0 0 0 0 0 0 0 0 0
404 410 359 295 248 264 304 410 489 535 592 573 562 614 688 735 804 664 619 650 640 627 638 756 970 985 834 656 472 495 288 236 325 0 102 93 189 420 541 440 224 0 0 0 0 0 0 0 0 0 0 0 0 0 56 11 9 0 0 0 0 0 0
241 352 256 161 0 44 176 34 104 272 333 401 440 366 307 65 86 453 481 414 413 528 479 377 456 694 694 702 573 512 92 0 0 24 298 220 230 365 470 402 223 81 37 0 0 0 0 0 0 0 0 0 0 0 10 19 0 0 0 0 0 0 0
163 192 194 149 0 0 0 0 0 0 0 0 0 0 0 0 0 1 95 288 317 344 429 364 354 403 561 464 497 478 248 207 224 264 354 356 478 385 487 391 287 154 77 0 0 0 3 0 0 0 0 0 0 0 0 0 0 0 0 0 0 0 0
194 195 196 110 0 0 0 0 0 0 0 0 0 0 0 0 0 0 0 119 389 520 584 612 577 548 535 554 576 508 292 289 296 173 357 343 432 334 448 452 327 300 243 0 0 0 0 0 0 0 0 0 0 0 0 0 0 0 0 0 0 0 0
166 159 147 0 0 0 0 0 0 0 0 0 0 0 0 0 0 0 0 0 159 525 628 630 637 624 575 591 645 583 504 468 431 268 154 0 167 240 431 521 415 139 196 0 0 0 0 0 0 0 0 0 0 0 0 0 0 0 0 0 0 0 0
164 82 0 0 0 0 0 0 0 0 0 0 0 0 0 0 0 0 0 0 109 444 649 709 682 598 561 669 776 773 738 652 492 344 170 0 196 245 334 369 332 364 291 0 0 0 0 0 0 0 0 0 0 0 0 0 0 0 0 0 0 0 0
31 2 0 0 0 0 0 0 0 0 0 0 0 0 0 0 0 0 0 0 91 291 401 593 751 752 695 773 816 764 637 437 300 0 0 0 0 0 0 0 0 0 0 0 0 0 0 0 0 0 0 0 0 0 0 0 0 0 0 0 0 0 0
1 3 0 0 0 0 0 0 0 0 0 0 0 0 0 0 0 0 0 0 0 0 92 378 617 694 722 744 699 680 562 370 0 0 0 0 0 0 0 0 0 0 0 0 0 0 0 0 0 0 0 0 0 0 0 0 0 0 0 0 0 0 0
0 0 0 0 0 0 0 0 0 0 0 0 0 0 0 0 1 7 0 0 0 0 0 84 316 398 442 307 87 98 191 0 0 0 0 0 0 0 0 0 0 0 0 0 0 0 0 0 0 0 0 0 0 0 0 0 0 0 0 0 0 0 0
0 0 0 0 0 0 0 0 0 0 0 0 0 0 0 0 0 0 0 0 0 0 0 0 0 0 0 0 0 0 0 0 0 0 0 0 0 0 0 0 0 0 0 0 0 0 0 0 0 0 0 0 0 0 0 0 0 0 0 0 0 0 0
1 58 1 0 0 0 0 0 0 0 0 0 0 0 0 0 0 0 0 0 0 0 0 0 0 0 0 0 0 0 0 0 0 0 0 0 0 0 0 0 0 0 0 0 0 0 0 0 0 0 0 0 0 0 0 0 0 0 0 0 0 0 0
57 65 0 0 0 0 0 40 42 0 0 0 0 0 0 0 0 0 0 0 0 0 0 0 0 0 0 0 0 0 0 0 0 0 0 0 0 0 0 0 0 0 0 0 0 0 0 0 0 0 0 0 0 0 0 0 0 0 0 0 0 0 0
120 86 0 94 117 127 113 101 6 0 0 0 0 0 0 0 0 0 0 0 0 0 0 0 0 0 0 0 0 0 0 0 0 0 0 0 0 0 0 0 0 0 0 0 0 0 0 0 0 0 0 0 0 0 0 0 0 0 0 0 0 0 0
312 216 115 105 106 99 90 24 45 21 0 0 0 0 0 0 0 0 0 0 0 0 0 0 0 0 0 0 0 0 0 0 0 0 0 0 0 0 0 0 0 0 0 0 0 0 0 0 0 0 0 0 0 0 0 0 0 0 0 0 0 0 0
308 210 0 111 111 85 113 114 88 65 79 0 0 0 0 0 0 0 0 0 0 0 0 0 0 0 0 0 0 0 0 0 0 0 0 0 0 0 0 0 0 0 0 0 0 0 0 0 0 0 0 0 0 0 0 0 0 0 0 0 0 0 0
305 181 125 165 225 268 240 173 153 115 55 0 0 0 0 0 0 0 0 0 0 0 0 0 0 0 0 0 0 0 0 0 0 0 0 0 0 0 0 0 0 0 0 0 0 0 0 0 0 0 0 0 0 0 0 0 0 0 0 0 0 0 0
319 147 279 323 372 391 324 263 231 141 0 0 0 0 0 0 0 0 0 0 0 0 0 0 0 0 0 0 0 0 0 0 0 0 0 0 0 0 0 0 0 0 0 0 0 0 0 0 0 0 0 0 0 0 0 0 0 0 0 0 0 0 0
75 57 0 330 385 441 457 370 247 70 0 0 0 0 0 0 0 0 0 0 0 0 0 0 0 0 0 0 0 0 0 0 0 0 0 0 0 0 0 0 0 0 0 0 0 0 0 0 0 0 0 0 0 0 0 0 0 0 0 0 0 0 0
309 285 350 425 354 309 370 271 74 0 0 0 0 0 0 0 0 0 0 0 0 0 0 0 0 0 0 0 0 0 0 0 0 0 0 0 0 0 0 0 0 0 0 0 0 0 0 0 0 0 0 0 0 0 0 0 0 0 0 0 0 0 0
44 192 240 206 409 386 238 56 0 0 0 0 0 0 0 0 0 0 0 0 0 0 0 0 0 0 0 0 0 0 0 0 0 0 0 0 0 0 0 0 0 0 0 0 0 0 0 0 0 0 0 0 0 0 0 0 0 0 0 0 0 0 0
197 239 314 324 411 310 310 171 104 2 0 0 0 0 0 0 0 0 0 0 0 0 0 0 0 0 0 0 0 0 0 0 0 0 0 0 0 0 0 0 0 1 0 0 0 0 0 0 0 0 0 0 0 0 0 0 0 0 0 0 0 0 0
379 308 300 327 422 387 332 399 464 412 319 0 0 0 0 0 0 0 0 0 0 0 0 0 0 0 0 0 0 0 0 0 0 0 0 0 0 0 0 0 0 0 0 0 0 0 0 0 0 0 0 0 0 0 0 0 0 0 0 0 0 0 0
310 333 329 255 322 430 424 425 408 485 528 546 123 0 0 0 0 0 0 0 0 0 0 0 0 0 0 0 0 0 0 0 0 0 0 0 0 0 0 0 0 0 0 0 0 0 0 0 0 0 0 0 0 0 0 0 0 0 0 0 0 0 0
386 377 340 384 386 468 502 557 501 442 422 458 761 742 470 325 305 105 0 0 0 0 0 0 0 0 0 0 0 0 0 0 0 0 0 0 0 0 0 0 0 0 0 0 0 0 0 0 0 0 0 0 0 0 0 0 0 0 0 0 0 0 0
233 263 269 279 287 324 359 338 422 341 230 341 469 542 733 784 696 619 499 390 231 0 0 0 0 0 0 0 0 0 0 0 0 0 0 0 0 0 0 0 0 0 0 0 0 0 0 0 0 0 0 0 0 0 0 0 0 0 0 0 0 0 0
195 207 190 183 202 199 236 238 250 281 315 466 487 456 444 428 437 425 551 706 684 585 468 93 58 0 0 0 0 0 0 0 0 0 0 0 0 0 0 0 0 0 0 0 312 315 280 0 0 0 0 0 0 0 0 0 0 0 0 0 0 0 0
44 156 171 77 37 36 0 0 0 59 200 304 336 324 366 519 442 452 482 515 632 685 582 565 615 525 348 142 0 0 0 0 0 0 0 0 76 359 411 444 466 484 481 454 459 447 382 269 119 0 0 3 2 0 0 0 0 2 2 0 0 0 0
15 3 0 0 0 0 0 0 0 0 0 0 0 0 186 320 536 583 685 698 608 614 535 547 651 658 661 608 480 266 65 16 0 0 0 0 0 382 470 510 559 601 620 629 630 580 481 363 37 0 0 0 1 0 1 2 0 0 0 1 2 0 0
44 16 10 7 1 0 0 0 0 0 0 0 0 0 0 0 0 31 156 618 755 712 681 663 624 609 600 551 548 566 503 303 206 336 364 397 467 550 600 646 667 659 637 624 609 478 310 0 0 0 0 0 0 0 5 5 1 0 2 0 0 0 0
10 45 14 3 0 0 0 0 0 0 0 0 0 0 0 0 0 0 0 0 0 0 282 488 558 593 582 576 571 560 550 544 544 313 516 620 673 682 668 700 760 754 740 556 446 84 293 147 0 0 0 1 0 0 4 0 0 1 0 0 0 0 0
9 15 16 6 0 0 0 0 0 0 0 0 0 0 0 0 0 0 0 0 0 0 0 0 0 16 344 566 584 571 561 530 530 538 462 464 570 620 604 231 414 647 650 578 450 356 0 0 0 0 0 0 0 11 45 0 0 0 0 0 0 0 0
0 0 0 0 0 0 0 0 0 0 0 0 0 0 1 0 0 0 0 0 0 0 0 0 0 0 0 0 197 484 516 500 526 538 519 486 414 384 421 428 384 362 323 326 170 146 147 123 0 53 0 0 0 7 17 0 0 0 0 0 0 0 0
0 0 0 0 0 0 0 0 0 0 0 0 0 0 0 0 0 0 0 0 0 0 0 0 0 0 0 0 0 0 344 462 454 466 488 492 492 474 474 477 440 417 397 392 404 393 363 164 13 1 31 0 0 3 0 2 0 0 0 0 0 0 0
0 0 0 0 0 0 0 0 0 0 0 0 0 0 0 0 0 0 0 0 0 0 0 0 0 0 0 0 0 0 0 144 417 456 436 456 477 505 533 545 535 530 547 501 456 396 326 277 214 200 146 71 28 10 15 11 0 0 0 0 0 0 0
0 0 0 0 0 0 0 0 0 0 0 0 0 0 0 0 0 0 0 0 0 0 0 0 0 0 0 0 0 0 0 0 14 414 467 430 419 413 430 486 525 538 522 513 504 474 383 277 197 181 157 177 115 20 15 3 1 0 0 0 0 0 0

ECMWFFLT1_con_mucape_033.txt.gz
CAPE
742 806 865 883 787 720 709 728 789 897 952 1022 985 847 711 598 516 522 563 628 599 516 513 782 762 586 486 389 368 330 93 258 302 323 464 467 410 432 590 479 174 0 0 0 0 0 0 0 4 9 127 172 150 139 211 250 213 0 0 0 0 0 0
702 668 710 682 686 712 688 661 724 783 828 824 719 651 639 588 531 492 526 629 646 614 802 821 796 653 446 334 305 123 0 84 0 134 426 465 417 421 528 384 0 0 0 0 0 0 0 0 0 0 0 66 136 246 311 294 31 0 0 0 0 0 0
477 547 558 571 609 573 497 472 505 549 546 533 568 586 602 586 518 478 456 576 674 732 840 900 864 834 756 488 340 81 0 0 71 119 66 409 444 403 511 342 0 0 0 0 0 0 0 0 0 0 0 46 93 79 203 58 0 0 0 0 0 0 0
424 484 502 534 529 447 393 382 376 385 368 397 456 544 649 657 723 602 504 479 550 679 776 878 936 982 920 666 443 393 368 345 366 307 218 274 442 428 470 339 0 0 0 0 0 0 0 0 0 0 0 10 42 33 0 0 0 0 0 0 0 0 0
362 413 420 440 405 362 369 379 348 354 338 337 343 200 181 164 201 337 355 393 441 541 603 653 817 951 977 805 571 465 403 261 276 309 267 247 363 432 452 387 0 0 0 0 0 0 0 0 0 0 0 0 0 24 0 0 0 0 0 0 0 0 0
378 361 303 274 204 16 276 20 19 299 276 231 15 0 0 0 0 0 0 0 0 228 454 448 452 617 838 780 668 537 428 94 214 210 192 268 309 381 432 406 308 0 0 0 0 0 0 0 0 0 0 0 0 0 0 0 0 0 0 0 0 0 0
395 304 167 0 45 0 0 0 0 0 0 0 0 0 0 0 0 0 0 132 136 278 348 358 304 329 427 588 580 535 416 100 236 298 304 301 316 330 377 412 335 200 110 61 0 0 0 0 0 0 0 0 0 0 0 0 0 0 0 0 0 0 0
368 290 157 0 0 0 0 0 0 0 0 0 0 0 0 0 0 0 0 104 435 486 478 518 481 485 449 464 468 537 384 307 287 255 314 340 412 391 416 453 369 272 195 137 0 0 0 0 0 0 0 0 0 0 0 0 0 0 0 0 0 0 0
261 230 198 137 0 0 0 0 0 0 0 0 0 0 0 0 0 0 0 83 410 537 583 577 592 572 551 549 558 479 439 450 406 299 272 277 302 319 365 441 432 338 268 200 0 0 0 0 0 0 0 0 0 0 0 0 0 0 0 0 0 0 0
226 223 206 112 0 0 0 0 0 0 0 0 0 0 0 0 0 0 0 54 337 475 570 626 625 587 568 632 630 643 621 531 454 292 183 166 178 238 390 485 531 365 272 172 40 0 0 0 0 0 0 0 0 0 0 0 0 0 0 0 0 0 0
244 221 160 77 27 0 0 0 0 0 0 0 0 0 0 0 0 0 0 0 49 215 375 595 700 684 646 740 759 687 488 349 288 0 0 0 0 0 69 69 77 285 286 0 0 0 0 0 0 0 0 0 0 0 0 0 0 0 0 0 0 0 0
271 154 23 0 0 0 0 0 0 0 0 0 0 0 0 0 0 0 0 0 0 0 224 451 662 704 733 748 711 668 496 76 0 0 0 0 0 0 0 0 0 0 108 29 0 0 0 0 0 0 0 0 0 0 0 0 0 0 0 0 0 0 0
94 0 0 0 0 0 0 0 0 0 0 0 0 0 0 0 0 0 0 0 0 0 27 247 439 552 604 556 456 495 330 0 0 0 0 0 0 0 0 0 0 0 0 0 0 0 0 0 0 0 0 0 0 0 0 0 0 0 0 0 0 0 0
0 0 0 0 0 0 0 0 0 0 0 0 0 0 0 0 0 0 0 0 0 0 0 0 14 156 167 0 0 0 0 0 0 0 0 0 0 0 0 0 0 0 0 0 0 0 0 0 0 0 0 0 0 0 0 0 0 0 0 0 0 0 0
0 0 0 0 0 0 0 0 0 0 0 0 0 0 0 0 0 0 0 0 0 0 0 0 0 0 0 0 0 0 0 0 0 0 0 0 0 0 0 0 0 0 0 0 0 0 0 0 0 0 0 0 0 0 0 0 0 0 0 0 0 0 0
0 0 0 0 0 0 0 0 0 0 0 0 0 0 0 0 0 0 0 0 0 0 0 0 0 0 0 0 0 0 0 0 0 0 0 0 0 0 0 0 0 0 0 0 0 0 0 0 0 0 0 0 0 0 0 0 0 0 0 0 0 0 0
0 0 0 0 0 0 0 0 0 0 0 0 0 0 0 0 0 0 0 0 0 0 0 0 0 0 0 0 0 0 0 0 0 0 0 0 0 0 0 0 0 0 0 0 0 0 0 0 0 0 0 0 0 0 0 0 0 0 0 0 0 0 0
0 0 0 0 0 0 0 0 0 0 0 0 0 0 0 0 0 0 0 0 0 0 0 0 0 0 0 0 0 0 0 0 0 0 0 0 0 0 0 0 0 0 0 0 0 0 0 0 0 0 0 0 0 0 0 0 0 0 0 0 0 0 0
0 0 0 0 0 0 0 0 0 0 0 0 0 0 0 0 0 0 0 0 0 0 0 0 0 0 0 0 0 0 0 0 0 0 0 0 0 0 0 0 0 0 0 0 0 0 0 0 0 0 0 0 0 0 0 0 0 0 0 0 0 0 0
298 194 22 0 0 0 0 0 0 0 0 0 0 0 0 0 0 0 0 0 0 0 0 0 0 0 0 0 0 0 0 0 0 0 0 0 0 0 0 0 0 0 0 0 0 0 0 0 0 0 0 0 0 0 0 0 0 0 0 0 0 0 0
393 241 50 0 0 0 0 0 0 0 0 0 0 0 0 0 0 0 0 0 0 0 0 0 0 0 0 0 0 0 0 0 0 0 0 0 0 0 0 0 0 0 0 0 0 0 0 0 0 0 0 0 0 0 0 0 0 0 0 0 0 0 0
382 285 190 0 0 0 0 0 0 0 0 0 0 0 0 0 0 0 0 0 0 0 0 0 0 0 0 0 0 0 0 0 0 0 0 0 0 0 0 0 0 0 0 0 0 0 0 0 0 0 0 0 0 0 0 0 0 0 0 0 0 0 0
260 205 65 41 109 166 0 0 0 0 0 0 0 0 0 0 0 0 0 0 0 0 0 0 0 0 0 0 0 0 0 0 0 0 0 0 0 0 0 0 0 0 0 0 0 0 0 0 0 0 0 0 0 0 0 0 0 0 0 0 0 0 0
178 9 248 233 226 39 126 158 0 0 0 0 0 0 0 0 0 0 0 0 0 0 0 0 0 0 0 0 0 0 0 0 0 0 0 0 0 0 0 0 0 0 0 0 0 0 0 0 0 0 0 0 0 0 0 0 0 0 0 0 0 0 0
0 0 108 170 88 185 168 49 0 101 218 184 0 0 0 0 0 0 0 0 0 0 0 0 0 0 0 0 0 0 0 0 0 0 0 0 0 0 0 0 0 0 0 0 0 0 0 0 0 0 0 0 0 0 0 0 0 0 0 0 0 0 0
0 0 116 149 128 0 185 258 266 246 264 235 0 0 0 0 0 0 0 0 0 0 0 0 0 0 0 0 0 0 0 0 0 0 0 0 0 0 0 0 0 0 0 0 0 0 0 0 0 0 0 0 0 0 0 0 0 0 0 0 0 0 0
0 0 156 195 221 181 242 392 388 348 294 266 260 252 284 333 354 236 196 0 0 0 0 0 0 0 0 0 0 0 0 0 0 0 0 0 0 0 0 0 0 0 0 0 0 0 0 0 0 0 0 0 0 0 0 0 0 0 0 0 0 0 0
223 251 200 222 282 239 130 304 391 411 376 346 313 322 314 305 362 395 435 445 457 443 400 344 116 68 58 0 0 0 0 0 0 0 0 0 0 0 0 0 0 0 0 0 0 0 0 0 0 0 0 0 0 0 0 0 0 0 0 0 0 0 0
6 200 259 256 286 291 305 337 371 384 422 403 340 336 336 311 284 285 317 352 383 383 416 459 504 501 476 453 463 51 0 0 0 0 0 0 0 0 0 0 0 0 0 0 0 0 0 0 0 0 0 0 201 0 0 0 0 0 0 0 0 0 0
0 29 94 194 214 213 193 229 229 294 338 349 326 335 374 386 343 297 306 332 344 358 455 482 492 468 463 523 532 551 569 307 89 0 0 0 0 0 0 0 0 0 0 0 0 0 0 5 162 192 283 311 340 336 326 51 0 0 0 0 11 0 0
48 93 106 99 22 18 1 48 25 51 50 151 235 272 305 328 344 337 342 368 345 339 422 443 435 418 381 390 394 444 490 514 496 357 322 0 0 0 0 0 0 0 0 0 0 0 0 0 0 0 333 349 100 264 290 135 15 0 0 0 0 0 0
20 25 28 28 19 24 53 40 36 36 26 12 2 0 0 0 137 167 272 306 261 0 0 0 258 294 325 356 375 378 378 375 420 518 511 489 454 165 29 0 0 0 119 342 350 340 142 295 246 187 322 316 26 21 9 18 7 0 0 0 0 0 0
4 0 1 1 1 9 22 21 25 11 0 0 0 0 0 0 0 0 0 0 0 0 0 0 8 221 251 248 258 287 335 348 366 326 414 478 538 560 550 492 325 420 411 366 424 468 494 331 9 0 0 0 0 0 4 1 0 0 0 0 0 0 0
0 0 0 0 0 4 0 0 4 0 0 0 0 0 0 0 0 0 0 0 0 0 0 0 0 0 0 0 0 0 0 0 0 0 0 1 143 363 484 531 553 561 534 578 581 583 565 266 198 0 0 0 1 0 0 0 0 0 0 0 0 0 0
0 0 0 0 0 1 0 0 0 0 0 0 0 0 0 0 0 0 0 0 0 0 0 0 0 0 0 0 0 0 0 0 0 0 0 0 0 0 45 350 452 477 475 475 553 562 517 434 358 20 0 0 21 11 0 0 0 0 0 0 0 0 0
0 0 0 0 0 0 0 0 0 0 0 0 0 0 0 0 0 0 0 0 0 0 0 0 0 0 0 0 0 0 0 0 0 0 0 0 0 0 0 0 159 393 451 449 433 422 414 405 387 95 83 95 75 29 54 42 9 0 0 0 0 0 0
0 0 0 0 0 0 0 0 0 0 0 0 0 0 0 0 0 0 0 0 0 0 0 0 0 0 0 0 0 0 0 0 0 0 0 0 0 0 0 0 0 19 315 412 395 417 440 407 415 367 294 252 0 117 37 139 121 81 0 0 0 0 0

ECMWFFLT1_con_mucape_036.txt.gz
CAPE
703 662 677 641 671 758 787 737 860 891 826 798 790 730 691 666 563 563 590 557 563 669 724 808 751 637 394 50 281 0 0 0 287 354 403 331 295 239 381 236 0 0 0 0 0 0 0 0 32 63 109 156 44 58 41 8 0 0 0 0 0 0 0
641 655 652 686 734 798 656 691 790 862 866 886 910 805 733 607 480 518 579 584 570 618 719 812 775 722 556 357 326 199 0 0 85 343 388 358 301 288 217 0 0 0 0 0 0 0 0 0 18 42 5 7 8 8 5 0 0 0 0 0 0 0 0
642 652 710 782 796 663 638 717 805 819 850 887 856 770 654 573 486 534 582 619 588 510 507 746 798 768 596 449 393 336 267 74 74 285 214 392 139 332 0 0 0 0 0 0 0 0 0 0 0 0 2 9 6 0 0 0 0 0 0 0 0 0 0
652 712 766 795 670 632 571 630 702 712 672 616 593 577 564 560 498 428 469 566 622 563 566 723 810 744 574 458 421 386 370 323 317 300 292 373 396 378 401 0 57 0 0 0 0 0 0 0 0 0 0 2 3 0 0 0 0 0 0 0 0 0 0
703 710 804 721 585 495 386 428 469 466 454 478 531 539 567 560 507 452 449 546 602 651 753 825 840 825 740 676 452 367 333 290 285 288 281 274 361 442 424 353 150 0 0 0 0 0 0 0 2 0 0 0 0 0 0 0 0 0 0 0 0 0 0
627 658 727 566 498 409 329 329 348 334 329 334 23 24 26 36 387 435 426 453 549 616 701 780 872 909 914 806 584 443 403 345 319 343 344 292 39 422 465 396 276 0 0 0 0 0 0 0 0 0 0 0 0 0 0 0 0 0 0 0 0 0 0
504 560 563 509 462 393 322 308 303 280 89 0 0 0 0 0 0 0 0 0 0 255 505 587 691 807 921 824 711 526 428 362 229 236 278 271 191 384 469 443 347 206 0 0 0 0 0 0 0 0 0 0 0 0 0 0 0 0 0 0 0 0 0
461 504 512 500 480 407 347 324 337 104 0 0 0 0 0 0 0 0 0 0 0 0 336 385 372 488 655 704 674 548 502 369 181 235 230 182 249 350 458 428 399 283 212 12 0 0 0 0 0 0 0 0 0 0 0 0 0 0 0 0 0 0 0
477 504 467 455 404 359 342 122 124 0 0 0 0 0 0 0 0 0 0 87 347 362 338 338 335 201 337 437 496 444 455 380 180 240 290 306 296 308 358 406 409 377 254 193 136 26 0 0 0 0 0 0 0 0 0 0 0 0 0 0 0 0 0
478 438 419 336 126 217 0 0 0 0 0 0 0 0 0 0 0 0 0 74 386 433 478 480 482 463 440 416 367 396 417 277 294 246 231 261 336 401 396 389 458 448 326 219 184 48 0 0 0 0 0 0 0 0 0 0 0 0 0 0 0 0 0
464 406 237 72 62 0 0 0 0 0 0 0 0 0 0 0 0 0 0 0 101 384 440 474 522 491 468 470 449 422 382 423 405 325 225 216 252 292 335 389 485 506 413 287 250 44 0 0 0 0 0 0 0 0 0 0 0 0 0 0 0 0 0
424 321 72 0 0 0 0 0 0 0 0 0 0 0 0 0 0 0 0 0 0 0 228 438 566 574 502 544 547 567 528 440 364 213 26 0 113 217 322 429 494 577 470 360 344 38 0 0 0 0 0 0 0 0 0 0 0 0 0 0 0 0 0
252 213 179 132 0 0 0 0 0 0 0 0 0 0 0 0 0 0 0 0 0 0 0 354 536 616 605 644 674 626 464 256 32 0 0 0 0 27 218 370 476 563 524 391 308 158 51 0 0 0 0 0 0 0 0 0 0 0 0 0 0 0 0
345 195 165 0 0 0 0 0 0 0 0 0 0 0 0 0 0 0 0 0 0 0 0 165 366 469 505 492 488 525 532 117 0 0 0 0 0 0 0 0 16 181 418 464 247 83 0 0 0 0 0 0 0 0 0 0 0 0 0 0 0 0 0
505 238 0 0 0 0 0 0 0 0 0 0 0 0 0 0 0 0 0 0 0 0 0 0 0 0 12 0 0 164 28 0 0 0 0 0 0 0 0 0 0 0 126 383 320 12 0 0 0 0 0 0 0 0 0 0 0 0 0 0 0 0 0
374 0 0 0 0 0 0 0 0 0 0 0 0 0 0 0 0 0 0 0 0 0 0 0 0 0 0 0 0 0 0 0 0 0 0 0 0 0 0 0 0 0 0 0 119 0 0 0 0 0 0 0 0 0 0 0 0 0 0 0 0 0 0
0 0 0 0 0 0 0 0 0 0 0 0 0 0 0 0 0 0 0 0 0 0 0 0 0 0 0 0 0 0 0 0 0 0 0 0 0 0 0 0 0 0 0 0 0 0 0 0 0 0 0 0 0 0 0 0 0 0 0 0 0 0 0
142 0 0 0 0 0 0 0 0 0 0 0 0 0 0 0 0 0 0 0 0 0 0 0 0 0 0 0 0 0 0 0 0 0 0 0 0 0 0 0 0 0 0 0 0 0 0 0 0 0 0 0 0 0 0 0 0 0 0 0 0 0 0
247 0 0 0 0 0 0 0 0 0 0 0 0 0 0 0 0 0 0 0 0 0 0 0 0 0 0 0 0 0 0 0 0 0 0 0 0 0 0 0 0 0 0 0 0 0 0 0 0 0 0 0 0 0 0 0 0 0 0 0 0 0 0
127 0 0 0 0 0 0 0 0 0 0 0 0 0 0 0 0 0 0 0 0 0 0 0 0 0 0 0 0 0 0 0 0 0 0 0 0 0 0 0 0 0 0 0 0 0 0 0 0 0 0 0 0 0 0 0 0 0 0 0 0 0 0
62 0 0 0 0 0 0 0 0 0 0 0 0 0 0 0 0 0 0 0 0 0 0 0 0 0 0 0 0 0 0 0 0 0 0 0 0 0 0 0 0 0 0 0 0 0 0 0 0 0 0 0 0 0 0 0 0 0 0 0 0 0 0
38 9 156 113 12 0 0 0 0 0 0 0 0 0 0 0 0 0 0 0 0 0 0 0 0 0 0 0 0 0 0 0 0 0 0 0 0 0 0 0 0 0 0 0 0 0 0 0 0 0 0 0 0 0 0 0 0 0 0 0 0 0 0
0 54 92 9 193 186 0 0 0 0 0 0 0 0 0 0 0 0 0 0 0 0 0 0 0 0 0 0 0 0 0 0 0 0 0 0 0 0 0 0 0 0 0 0 0 0 0 0 0 0 0 0 0 0 0 0 0 0 0 0 0 0 0
18 92 80 68 213 215 50 6 1 0 0 0 0 0 0 0 0 0 0 0 0 0 0 0 0 0 0 0 0 0 0 0 0 0 0 0 0 0 0 0 0 0 0 0 0 0 0 0 0 0 0 0 0 0 0 0 0 0 0 0 0 0 0
38 82 138 133 295 224 194 4 0 43 53 0 0 0 0 0 0 0 0 0 0 0 0 0 0 0 0 0 0 0 0 0 0 0 0 0 0 0 0 0 0 0 0 0 0 0 0 0 0 0 0 0 0 0 0 0 0 0 0 0 0 0 0
0 13 0 2 82 299 124 2 79 147 115 0 0 0 0 0 0 0 0 0 0 0 0 0 0 0 0 0 0 0 0 0 0 0 0 0 0 0 0 0 0 0 0 0 0 0 0 0 0 0 0 0 0 0 0 0 0 0 0 0 0 0 0
0 14 53 82 85 30 0 0 172 60 55 0 0 0 0 0 0 0 0 0 0 0 0 0 0 0 0 0 0 0 0 0 0 0 0 0 0 0 0 0 0 0 0 0 0 0 0 0 0 0 0 0 0 0 0 0 0 0 0 0 0 0 0
0 50 99 54 0 0 0 0 0 0 0 0 0 0 0 0 0 0 67 21 26 0 0 0 0 0 0 0 0 0 0 0 0 0 0 0 0 0 0 0 0 0 0 0 0 0 0 0 0 0 0 0 0 0 0 0 0 24 0 0 0 0 0
34 51 22 0 0 47 0 0 53 61 78 140 0 29 222 31 0 20 98 136 165 191 137 144 213 230 244 233 239 87 266 199 132 0 0 0 0 0 0 0 0 0 0 0 0 0 0 0 0 0 0 0 0 0 0 0 0 0 0 0 0 0 0
0 0 22 2 60 0 42 30 61 75 104 145 218 227 252 258 220 0 0 0 0 0 150 15 162 250 270 299 308 305 308 343 374 392 382 66 0 0 0 0 0 0 0 0 0 0 0 0 0 0 0 0 0 0 0 0 0 196 220 261 289 299 258
0 0 0 0 0 35 0 0 4 85 166 212 208 210 234 270 283 273 137 0 0 0 0 0 34 38 40 244 276 287 319 334 354 352 397 424 391 283 0 0 0 0 0 0 0 0 0 0 0 0 41 58 8 0 166 134 173 211 60 259 262 187 43
0 0 0 0 0 0 0 0 0 0 145 183 233 212 228 244 259 293 339 323 251 218 83 0 0 0 260 288 296 293 298 305 308 327 322 340 342 351 369 373 370 363 344 328 274 177 63 0 0 0 0 0 0 0 238 240 97 162 0 0 0 0 0
13 17 2 7 1 0 3 0 0 0 0 0 116 141 151 30 153 204 266 371 416 419 378 337 300 285 58 12 0 0 0 0 0 12 104 270 311 322 325 338 343 333 424 443 458 450 388 319 266 284 294 265 273 279 247 280 162 0 0 0 0 0 0
9 7 5 4 1 0 0 0 4 8 16 0 12 0 24 42 12 4 0 0 0 0 0 0 0 0 0 0 0 0 0 0 0 0 0 0 124 174 279 295 291 276 234 314 394 457 466 448 435 390 339 334 192 207 214 166 159 0 0 0 0 0 0
0 0 0 1 0 0 0 0 0 0 0 0 0 0 0 0 1 0 0 0 0 0 0 0 0 0 0 0 0 0 0 0 0 1 0 1 1 0 1 0 0 0 0 0 0 144 228 282 310 295 262 305 348 284 175 128 98 72 86 78 4 0 3
1 0 0 0 0 0 0 0 0 0 0 0 1 0 0 0 0 0 0 0 0 0 0 0 0 0 0 0 0 0 0 0 0 0 0 0 1 0 3 3 2 1 0 0 0 0 39 219 274 294 306 281 282 310 287 213 139 109 120 126 98 47 43
0 0 0 0 0 0 0 0 0 0 0 0 0 0 0 0 0 0 2 1 0 0 0 0 0 0 0 0 0 0 0 0 0 0 0 0 0 1 1 1 1 0 0 0 0 0 0 0 243 368 355 274 231 236 241 265 245 228 188 115 101 96 98

ECMWFFLT1_con_mucape_042.txt.gz
CAPE
894 1506 1276 1069 1266 1397 1301 1206 1171 1169 1100 1122 1001 954 867 951 1018 1143 1748 1661 1530 1576 1276 1353 1408 1079 1064 1095 1270 1274 1048 1061 1227 1034 1080 1010 932 946 939 1237 928 994 774 787 682 534 556 537 528 607 631 506 221 0 0 0 0 0 0 0 0 0 0
654 997 1186 1135 1091 1181 1229 1159 1177 1090 1143 1080 965 1026 995 990 1061 959 1033 1632 1800 1546 1118 1375 1396 978 1414 1413 1609 1549 1434 1300 1110 1087 982 1084 970 953 872 1161 944 980 848 936 749 497 509 477 382 452 414 146 30 0 0 0 0 0 0 0 0 0 0
1390 995 1017 927 993 1155 1208 1140 1235 1124 1068 1088 1072 1024 1030 979 964 985 992 974 1255 1228 1056 1335 1431 1392 1191 1574 1575 1693 1774 1549 1294 1138 1105 980 1148 1219 818 975 814 802 693 806 794 497 423 394 451 384 282 50 50 2 0 0 0 0 0 0 0 0 0
1036 916 937 881 819 1144 1052 1132 1103 1086 1041 1000 1087 1156 1107 948 1024 986 984 938 758 1101 915 1482 1560 1494 1581 1543 1600 1702 1694 1722 1375 1416 1158 1021 648 960 862 711 654 594 620 620 630 510 444 365 412 379 260 121 35 0 0 0 0 0 0 0 0 0 0
1282 1240 1136 1124 1052 893 1116 1117 1171 1070 1096 1055 1076 1094 1064 1016 1079 989 998 934 826 1002 975 1517 1626 1553 1505 1493 1576 1632 1538 1660 1604 1587 1427 1088 671 730 896 769 707 470 527 476 442 1141 789 183 412 486 284 46 1 0 0 0 0 0 0 0 0 0 0
1842 1644 1641 1626 1354 1239 983 965 1143 1071 930 1008 1008 894 1161 1109 1030 963 956 849 878 952 795 826 1733 1546 1512 1576 1662 1631 1576 1578 1654 1573 1409 1495 1301 968 921 1012 640 513 595 708 355 794 622 460 431 436 87 7 3 0 0 0 0 0 0 0 0 0 0
1688 1916 1421 1268 1141 1145 914 830 904 722 661 767 874 829 905 928 825 842 786 805 767 886 907 965 852 1563 1528 826 1460 1553 1636 1682 1566 1715 1632 1637 1583 1403 1173 875 858 646 694 609 532 554 530 469 469 470 169 44 0 0 0 0 0 0 0 0 0 0 0
1723 1502 1424 1657 1504 1340 1098 974 1152 1010 926 880 903 887 970 843 804 901 903 836 798 863 900 979 961 1249 1598 1242 1212 1507 1484 1531 1650 1708 1526 1394 1334 1291 1172 1084 906 876 866 647 690 615 506 394 458 469 242 26 0 0 0 0 0 0 0 0 0 0 0
1669 1373 1809 1566 1480 1417 1263 1115 971 818 764 700 726 831 965 858 928 894 1011 804 945 999 924 907 926 1303 1710 1634 1241 1463 1569 1412 1698 1742 1579 1565 1532 1480 1645 1487 1103 913 1064 692 600 542 384 354 442 452 98 0 0 0 0 0 0 0 0 0 0 0 0
1524 1704 1718 1303 995 917 1056 826 781 740 812 808 866 1129 972 782 680 596 532 643 1048 1032 1025 822 763 625 1346 1781 1414 1540 1487 1487 1504 1364 1428 1423 1537 1746 1645 1608 1371 1034 1018 794 577 594 590 511 518 280 24 0 0 0 0 0 0 0 0 0 0 0 0
1434 1749 1432 1212 1123 833 679 597 678 681 554 511 686 830 773 676 670 581 560 627 721 854 950 931 770 775 742 890 1479 1591 1417 1504 1375 1429 1516 1391 1482 1618 1517 1639 1280 1174 959 820 782 862 830 802 436 79 6 0 0 0 0 0 0 0 0 0 0 0 0
1268 1241 1018 869 859 705 620 534 374 400 649 656 515 670 552 422 479 592 550 530 595 585 656 759 858 722 734 983 1758 1631 1651 1600 1284 1479 1439 1513 1646 1574 1686 1624 1562 1174 1160 964 839 811 812 577 509 36 0 5 0 0 0 0 0 0 0 0 0 0 0
1226 1007 1204 1104 782 627 627 624 642 699 588 368 396 415 369 308 396 448 466 430 514 545 582 629 699 726 1016 1618 1541 1479 1454 1472 1492 1429 1308 1419 1588 1595 1621 1620 1531 1330 1240 875 724 508 320 300 475 1 0 0 0 0 0 0 0 6 5 0 0 0 0
1253 1180 1157 1027 786 699 693 757 797 691 520 452 342 336 282 296 242 243 242 207 261 326 525 659 711 816 1289 1629 1389 1469 1424 1223 946 608 704 861 747 1436 1471 1350 1393 1446 1332 985 623 308 113 194 195 2 0 0 0 0 0 0 6 0 7 8 0 0 0
1501 1295 1186 1081 866 834 840 777 780 626 512 474 353 234 262 330 294 223 193 161 176 301 416 540 774 838 703 1468 1496 1514 1323 745 401 207 377 421 768 984 1476 1480 1373 1652 1312 992 718 56 10 7 2 1 0 0 0 0 0 0 3 6 0 6 3 0 0
1597 1545 1351 1141 948 673 722 769 718 600 404 370 332 260 395 344 292 279 287 148 93 305 337 283 624 533 546 720 861 1022 958 593 308 272 302 167 111 574 1280 1470 1416 1554 1543 1406 967 136 0 0 0 0 0 0 0 0 0 0 5 4 0 0 0 0 0
1808 1572 1389 962 847 724 719 711 612 572 479 480 453 350 375 332 250 297 255 103 59 196 286 324 370 267 237 226 323 593 731 355 160 155 80 36 1 38 113 421 1372 1588 1608 1718 1250 306 63 4 0 0 0 0 0 0 0 0 0 7 0 0 0 0 0
1805 1777 1472 964 852 837 798 664 604 512 510 503 463 430 269 228 218 128 264 53 0 40 46 73 124 153 128 82 68 79 32 1 53 72 48 2 0 5 25 65 51 494 1303 1664 1574 672 236 171 4 0 0 0 0 0 0 0 0 0 0 1 3 0 0
1427 1381 1241 958 919 819 694 665 649 564 466 449 418 284 195 83 9 13 46 8 0 0 2 6 0 3 46 54 32 3 0 0 0 18 36 0 0 4 10 16 82 128 292 764 1291 1010 463 491 92 0 0 0 0 4 19 9 0 0 0 0 0 0 0
611 968 1095 876 864 768 737 710 634 524 488 448 332 162 61 36 5 0 1 1 0 0 0 0 0 0 0 15 38 4 0 0 0 0 0 0 0 0 0 2 52 212 187 108 142 395 570 733 332 205 17 15 0 1 62 21 2 0 5 2 2 0 0
86 88 362 845 920 681 731 657 508 492 521 414 151 19 4 0 0 0 0 0 0 0 0 0 0 0 0 0 0 6 1 0 0 0 0 0 0 0 1 5 3 14 71 193 257 346 501 553 426 628 166 220 75 23 24 9 15 5 4 7 0 0 0
28 21 66 171 329 575 596 517 545 502 422 166 39 1 0 0 0 0 0 0 0 0 0 0 0 0 0 0 0 0 0 0 3 11 9 0 5 1 0 2 2 9 1829 343 0 673 504 535 488 266 212 249 216 109 48 12 10 7 4 0 0 0 0
55 133 134 158 141 108 211 305 270 244 134 72 29 0 0 0 0 0 0 0 0 0 2 3 0 0 0 0 1 0 0 0 0 2 22 52 30 12 2 3 164 0 0 0 0 0 0 0 77 581 933 242 217 103 90 90 45 15 2 0 0 0 0
122 6 0 0 0 1 47 198 114 80 73 26 14 0 0 0 0 0 0 0 0 3 0 0 0 0 0 0 0 0 0 0 0 0 0 21 39 2 2 0 43 188 0 0 0 0 0 0 0 0 0 0 6 1290 224 106 101 63 19 11 4 0 0
72 0 0 0 0 0 0 0 0 52 122 83 50 69 14 0 0 1 40 69 3 0 0 0 0 0 0 0 0 0 0 0 0 0 0 0 0 2 5 24 46 60 30 931 189 73 0 0 0 0 0 0 0 0 0 720 654 124 98 59 21 34 70
0 2 0 0 0 5 8 7 8 18 13 34 247 230 115 83 160 102 3 0 0 0 0 0 0 0 0 0 0 4 0 0 0 0 6 8 18 65 63 69 133 266 76 90 100 83 119 386 0 0 0 0 0 0 0 0 0 237 528 226 191 171 179
6 2 0 0 0 0 0 4 16 36 25 12 7 93 154 14 0 0 0 0 0 0 0 0 0 0 0 0 0 0 9 9 0 3 2 10 34 57 106 126 130 172 311 241 20 63 189 298 793 445 259 203 163 274 0 0 0 0 0 227 339 356 394
6 6 2 1 1 3 13 10 16 22 0 0 0 0 0 0 0 0 0 0 0 0 0 0 0 0 0 0 0 4 286 93 69 73 108 185 114 96 143 87 81 80 248 310 152 262 187 224 271 412 484 395 326 314 551 368 48 10 13 24 158 284 335
4 1 1 1 1 0 0 1 4 2 0 0 0 0 0 0 0 0 0 0 0 0 0 0 0 0 0 0 0 71 193 402 266 235 360 528 418 348 334 431 255 172 249 232 271 0 43 154 447 385 289 335 366 414 567 746 646 219 786 1204 608 500 630
0 0 1 0 0 0 0 0 2 0 0 0 0 0 0 0 0 0 0 0 0 0 0 0 0 0 0 0 0 10 91 38 135 378 536 705 557 700 969 875 899 560 788 671 440 102 0 0 174 480 514 475 487 449 417 1189 146 0 0 0 0 0 0
0 0 0 0 0 0 3 4 3 2 2 4 8 12 0 0 0 0 1 2 0 0 0 0 0 0 0 0 0 0 0 1 13 22 98 171 151 297 0 0 1 500 749 376 236 0 0 0 159 499 764 784 794 726 715 806 553 0 0 0 0 0 0
1 1 1 1 0 1 1 2 6 7 6 7 8 3 0 0 0 0 0 0 0 0 0 0 0 0 0 0 0 0 0 0 0 0 0 0 2 16 94 0 0 0 0 0 0 126 220 232 173 747 1038 1199 992 1136 1096 1115 1210 667 216 0 0 0 0
0 0 0 0 0 0 1 3 3 3 4 1 0 0 0 0 0 0 0 0 0 0 0 4 0 0 0 0 0 0 0 0 0 0 0 45 0 0 0 3 0 0 0 0 0 0 0 0 0 132 508 804 1090 997 472 682 706 976 1112 623 416 214 116
0 0 0 0 0 1 1 1 1 1 0 0 0 0 0 0 1 2 1 1 0 0 9 14 19 0 0 0 9 0 0 0 0 0 7 0 0 0 0 2 0 0 2 0 1 3 2 2 3 6 6 261 427 341 440 478 876 450 464 812 700 566 487
1 0 0 0 0 0 0 0 0 1 1 0 0 0 0 0 0 0 0 0 0 0 0 0 0 0 0 0 0 0 0 0 10 23 12 32 16 13 19 29 4 8 21 10 7 4 0 0 0 0 0 0 0 0 0 168 193 337 607 577 603 603 588
1 0 0 0 0 0 0 0 0 0 0 0 0 0 0 0 0 0 0 0 0 0 0 0 0 0 0 0 3 5 4 2 3 8 7 1 9 4 1 1 0 0 0 0 0 0 0 0 0 0 0 0 0 0 0 0 2 50 238 369 378 414 388
1 0 0 0 0 0 0 0 0 0 0 0 0 0 0 0 0 0 0 0 0 0 0 0 0 0 0 0 0 0 2 3 3 2 1 2 5 2 1 0 0 0 0 0 0 0 0 0 0 0 0 0 0 0 0 0 0 0 14 58 124 108 152

ECMWFFLT1_con_mucape_045.txt.gz
CAPE
1202 984 1082 1268 1088 820 619 948 854 1398 926 926 1040 1115 1529 1845 2040 1744 1602 1472 1387 1428 1090 1364 1176 852 836 829 853 862 715 773 1093 728 1092 1314 1193 900 1276 1306 1308 1238 1077 529 441 568 283 472 341 243 269 77 0 0 0 0 0 0 0 0 0 0 0
1563 1191 684 555 469 436 392 475 810 877 968 832 906 868 709 953 1322 1406 1282 1153 1224 1420 941 1327 1332 1016 836 960 775 1312 850 912 964 1633 1336 1113 1028 665 401 595 953 758 1171 904 800 269 602 397 270 277 360 208 2 0 0 0 0 0 0 0 0 0 0
930 654 708 614 496 414 310 589 1076 816 862 1074 924 875 1056 896 842 1275 1660 1603 1674 1782 1263 1056 1166 910 1043 1196 995 1355 1179 1652 1343 1378 1459 1506 1541 1622 516 608 856 694 262 861 530 353 552 346 262 296 323 214 23 0 0 0 0 0 0 0 0 0 0
709 667 269 286 129 358 516 976 1119 1032 1010 1096 1227 1229 1150 814 1002 783 1068 1788 1930 1692 1097 1248 1283 1090 1182 1089 1294 1402 1110 1523 1074 981 1212 1399 1498 1421 1592 1050 497 503 771 670 560 573 508 192 164 196 181 77 16 0 0 0 0 0 0 0 0 0 0
652 430 213 92 207 245 874 1074 1009 1084 1094 1143 1182 1265 1290 959 1105 1001 959 1116 1167 1253 1112 1569 1496 1344 1155 1231 1191 1264 912 1034 1334 1112 1356 1376 1447 1001 1451 1420 893 820 930 963 422 611 890 850 1036 248 109 31 0 0 0 0 0 0 0 0 0 0 0
732 540 247 283 440 667 948 1150 1188 1085 1118 1139 1130 1093 1266 1159 1166 1181 1089 1047 904 1101 990 1463 1690 1240 1334 1256 1251 1286 1274 1246 1416 1054 1387 1825 1606 1476 1557 1332 1114 252 526 624 802 662 484 836 547 270 39 1 5 0 0 0 0 0 0 0 0 0 0
1054 844 280 586 945 829 1074 1278 1221 1093 1112 1120 1055 1015 1128 1175 1072 1091 1025 886 849 871 933 1335 1546 1491 1502 1425 1273 1284 1189 1244 963 1163 750 1507 1574 1469 1628 1438 865 815 1609 897 777 688 745 790 478 123 38 0 0 0 0 0 0 0 0 0 0 0 0
1255 802 616 622 868 1123 1177 1301 1103 732 806 823 684 670 902 1015 981 1011 1015 1099 1019 916 826 992 1345 1683 1472 1281 1434 1453 1085 1088 1108 1464 1009 1170 1165 1188 1106 1100 884 574 866 654 660 567 654 623 294 250 24 0 0 0 0 0 0 0 0 0 0 0 0
1023 949 740 609 987 1175 1126 996 918 765 733 735 812 860 756 841 905 938 1026 897 901 970 918 929 1217 1256 1731 1328 1133 1175 1288 880 963 1273 1145 903 1002 1108 1044 1276 1006 766 794 568 534 528 416 486 399 334 20 0 0 0 0 0 0 0 0 0 0 0 0
967 786 912 638 1423 1396 1243 1040 1077 924 898 922 812 936 951 836 940 902 737 725 785 898 1027 963 877 938 1383 1289 1010 961 1112 1073 1126 1206 986 1022 1113 939 1012 985 1197 1072 1043 816 275 499 402 389 410 219 16 14 0 0 0 0 0 0 0 0 0 0 0
1277 1076 862 981 1370 1417 1003 1148 1060 960 954 949 900 962 943 946 916 715 613 728 870 784 863 883 753 830 1130 1241 1238 1267 1119 1342 1188 991 1126 1208 1223 1657 1107 886 876 913 1114 735 482 515 515 462 445 92 20 8 12 0 0 0 0 0 0 0 0 0 0
1320 1113 752 727 1128 1065 1028 1054 1017 1006 923 899 863 817 861 631 684 609 506 451 521 537 562 582 592 577 643 1004 1275 1204 953 1014 1099 1147 1223 1300 1002 1496 1404 1415 1114 1206 992 746 407 493 572 402 163 104 5 3 1 28 0 0 0 0 0 0 0 0 0
1037 553 601 407 595 725 794 915 938 835 710 511 461 500 389 336 384 369 539 445 435 535 520 587 710 656 659 785 1319 1158 978 1348 1202 828 1318 1258 1223 1146 1064 1032 1139 1111 918 607 699 572 740 657 274 24 2 18 1 0 0 0 0 0 0 0 0 0 0
1190 938 646 303 299 556 641 513 543 722 514 568 528 399 437 433 449 555 585 480 498 568 556 602 663 594 655 881 1535 1260 1361 1256 745 916 888 1173 1300 1224 1276 1268 737 1023 871 678 778 809 312 266 278 3 10 5 0 0 0 0 0 1 0 0 0 0 0
1109 462 674 352 703 577 575 566 721 662 542 639 594 418 477 439 416 464 422 355 359 303 381 402 536 533 554 1167 1142 1143 1371 800 571 442 796 642 480 1143 1329 900 878 990 606 857 442 92 39 108 22 3 1 0 0 0 0 0 0 0 0 0 0 0 0
836 730 364 549 739 672 694 802 757 625 633 500 426 400 422 509 420 298 326 266 276 248 237 217 349 374 475 1239 1204 1531 1356 656 497 260 436 496 318 927 1198 909 854 719 729 727 558 142 29 24 0 1 0 0 0 0 0 0 9 4 0 0 0 0 0
618 960 637 612 772 722 836 811 794 720 495 380 368 337 442 381 262 315 282 178 175 264 227 288 358 402 382 585 1116 684 915 502 414 261 262 229 98 429 1120 919 731 893 875 787 741 225 24 0 0 1 2 0 0 0 0 0 1 0 1 0 0 0 0
905 749 671 697 884 788 785 711 704 423 298 263 326 412 308 313 217 279 375 153 148 200 240 306 349 344 525 542 532 334 462 215 202 220 154 110 24 73 471 744 923 914 1078 906 1042 148 3 0 0 2 0 0 0 0 0 0 0 3 5 0 0 0 0
1213 883 807 868 865 793 675 688 659 640 337 231 468 351 227 300 123 200 160 142 130 107 78 138 153 232 241 286 328 361 165 103 103 66 28 1 4 6 84 199 602 1146 1384 1349 1078 245 36 2 0 2 0 0 0 0 0 0 0 0 0 1 4 0 2
1290 1194 985 788 828 722 691 638 449 402 358 447 447 301 195 198 103 206 238 143 32 2 24 13 36 39 103 100 112 57 55 15 14 18 17 0 6 1 1 7 35 178 984 1114 806 407 97 13 1 0 0 0 0 4 0 0 0 0 0 0 0 2 0
1466 1328 774 766 718 642 416 572 420 639 550 408 291 188 134 129 143 213 296 131 11 2 3 6 12 41 34 27 11 36 20 19 1 3 4 4 9 7 2 14 2 25 101 238 763 701 856 77 9 2 1 130 20 24 0 0 0 0 0 0 1 7 4
1210 1139 621 500 455 336 353 284 749 683 652 442 227 140 111 140 91 153 105 44 5 0 7 0 0 0 0 0 0 0 21 11 2 7 8 2 2 0 1 5 1 184 107 0 104 1068 1302 775 933 234 25 56 17 26 37 20 4 6 23 10 15 12 12
645 948 1011 584 286 395 277 592 678 719 683 350 107 91 48 1 0 2 1 3 1 61 3 0 0 0 0 0 4 0 14 8 2 5 6 3 2 2 5 2 386 0 0 0 0 0 0 0 0 508 820 391 296 152 86 106 22 17 7 6 10 15 9
509 635 801 787 699 531 556 612 652 550 380 165 43 1 0 0 0 0 0 0 84 3 0 0 0 0 0 0 0 328 4 0 0 1 5 7 16 10 4 0 211 0 0 0 179 0 0 0 0 0 15 371 522 1017 1027 177 50 40 20 8 6 14 34
225 336 341 423 448 392 440 548 212 84 108 63 5 0 0 0 0 0 19 182 3 0 0 0 0 0 0 0 0 12 21 1 0 0 0 0 4 6 3 0 8 0 0 936 5 0 1 0 0 0 0 0 0 0 0 24 322 229 181 116 32 48 54
0 0 9 2 13 7 100 80 165 273 375 278 19 0 2 18 40 130 42 0 0 0 0 0 0 0 0 0 0 0 0 1 3 0 0 0 0 0 0 0 1 15 0 25 12 84 15 76 0 0 0 0 0 0 0 0 0 73 114 210 447 148 93
12 2 0 0 0 0 16 4 2 41 143 208 202 129 74 44 18 0 0 0 0 0 0 0 0 0 0 0 0 0 8 0 0 0 0 0 0 18 46 67 32 22 22 50 33 256 10 34 404 145 232 179 12 247 0 0 0 0 28 52 103 264 639
0 0 0 0 0 0 0 1 1 0 6 119 281 69 13 2 0 0 0 0 0 0 0 0 0 0 0 0 0 6 39 2 0 0 0 8 14 21 40 66 78 64 83 52 0 0 23 137 133 233 405 329 153 49 63 191 779 309 264 344 180 126 138
6 5 0 2 0 6 11 3 1 6 15 16 2 1 2 1 0 0 0 0 0 0 0 0 0 0 0 0 0 0 35 11 0 0 7 15 2 1 10 19 36 16 64 40 0 0 0 15 89 147 202 274 254 237 305 292 645 760 798 584 314 292 308
18 10 11 5 4 12 10 4 10 10 12 9 7 4 0 0 0 0 0 0 2 0 0 0 0 0 0 0 0 3 30 17 51 73 181 179 90 48 515 576 716 399 654 0 170 76 0 6 147 61 56 64 140 335 291 334 462 310 291 207 0 0 0
7 4 1 1 0 1 4 3 2 3 2 0 0 0 0 0 0 0 0 1 4 4 3 0 0 0 0 0 0 2 6 17 69 109 233 208 216 244 334 5 28 325 124 85 177 0 0 0 263 445 521 456 325 222 273 445 761 482 264 323 0 0 0
0 0 0 3 2 0 0 0 0 0 0 0 0 0 0 0 0 0 1 2 2 2 1 0 0 0 0 0 0 0 0 0 29 47 53 129 113 41 0 0 0 0 0 0 0 0 0 0 14 177 492 767 828 942 950 882 775 634 513 505 757 521 198
0 0 0 0 2 11 12 8 6 5 7 6 3 1 0 1 4 4 0 9 8 3 3 3 4 0 0 0 0 0 0 0 0 0 0 0 0 3 9 0 0 0 0 0 0 0 0 0 0 0 0 10 136 513 510 630 606 439 438 444 391 532 653
0 0 0 0 3 6 5 5 0 0 1 1 2 1 0 0 1 1 4 5 5 0 1 2 0 2 0 0 0 0 6 0 0 0 0 0 0 0 1 2 0 0 0 0 0 0 0 0 0 0 0 0 0 0 0 0 0 0 60 253 357 450 636
0 0 0 0 0 1 3 1 1 2 4 3 3 1 0 0 0 0 0 1 1 0 1 0 0 3 4 6 3 0 0 0 26 0 0 0 0 0 0 0 0 0 0 0 0 0 0 0 0 0 0 0 0 0 0 0 0 0 0 0 26 346 466
2 1 0 0 0 0 0 0 0 4 3 1 1 0 0 0 0 0 0 0 0 0 0 0 0 0 0 2 5 5 5 5 0 0 0 0 0 0 0 0 0 0 6 4 2 1 1 0 0 3 3 4 5 5 2 0 0 0 0 0 0 1 22
0 1 1 1 0 0 0 0 0 0 2 3 2 2 2 1 0 0 0 0 0 0 0 0 0 0 0 0 1 0 0 0 0 0 0 0 0 0 1 7 1 0 1 0 0 0 0 2 1 1 1 0 0 0 0 0 0 0 0 0 0 0 0

ECMWFFLT1_con_mucape_048.txt.gz
CAPE
610 1246 1438 1589 1602 1495 1443 1516 1680 1410 1399 1168 1339 1378 1251 1626 1612 1528 1489 1520 1436 1274 1260 1411 1441 1001 1090 767 743 1417 1524 1653 1197 986 1010 644 954 824 1272 1458 1322 945 780 965 326 386 244 240 305 138 2 0 0 0 0 0 0 0 0 0 0 0 0
855 1174 1258 1226 1064 962 1000 944 987 870 1072 882 826 992 1048 1459 1288 1124 1361 1266 1530 1176 952 1088 873 934 1240 1019 1430 1041 962 622 605 939 810 1006 889 999 1182 1290 1103 1141 823 848 763 617 365 240 191 241 75 0 0 0 0 0 0 0 0 0 0 0 1
836 1110 1042 1072 926 808 777 686 775 792 918 1134 1212 1040 892 1139 1422 1496 1420 1388 1373 1286 786 746 770 1026 1215 1198 1367 1142 897 1081 814 540 678 1284 1150 1574 1010 1152 1098 1097 725 822 722 387 396 326 229 271 67 0 0 0 0 0 0 0 0 0 0 0 0
984 1070 990 826 819 727 545 526 668 1006 1166 1233 1384 1274 1177 1077 1292 1421 1424 1491 1526 1583 1145 953 1002 1004 1424 1363 1388 1230 891 1079 1282 1434 1490 1324 1376 1200 855 927 725 1037 1132 787 608 358 596 391 177 205 198 6 0 0 0 0 0 0 0 0 0 0 0
902 1005 981 801 679 652 586 660 784 975 1350 1413 1566 1490 1302 1058 1304 1504 1548 1423 1649 1426 1475 1763 913 1332 1218 1380 1528 1680 1500 1650 1607 1606 1585 1500 1411 1357 1511 1324 731 568 670 708 644 621 774 499 254 169 79 9 0 0 0 0 0 0 0 0 0 0 0
782 760 778 701 530 626 531 716 736 903 1301 1402 1442 1574 1409 1356 1266 1500 1408 1326 1335 1227 1118 1294 1306 1291 1062 914 1331 1461 1580 1483 1639 1714 1658 1583 1469 1122 1607 1228 768 638 821 703 727 951 1007 995 1444 76 29 0 0 0 0 0 0 0 0 0 0 0 0
754 617 597 612 634 496 416 716 954 1167 1281 1441 1440 1509 1540 1248 1206 1443 1381 1350 1340 1199 1191 1508 1640 1426 1396 1084 974 1215 1299 1073 1199 1573 1784 1821 1642 1212 1273 1092 1091 590 793 769 893 976 977 602 547 282 15 13 0 0 0 0 0 0 0 0 0 0 0
797 519 630 655 902 552 542 631 792 1295 1346 1385 1360 1595 1438 1443 1400 1360 1344 1242 1094 1253 1254 1444 1655 1679 1731 1544 1123 1433 976 1269 1153 1470 1442 1633 1774 1694 1568 1432 841 928 1084 1234 967 704 836 690 536 532 60 1 0 0 0 0 0 0 0 0 0 0 0
630 500 475 495 702 636 423 882 1038 1254 1418 1388 1287 1249 1339 1255 1270 1210 1134 1161 1145 1130 1134 1241 1432 1413 1722 1101 1277 1130 1042 979 1368 1314 1208 1546 1360 1533 1574 1354 898 870 1105 941 886 707 623 808 987 760 356 6 0 0 0 0 0 0 0 0 0 0 0
379 253 317 252 382 446 565 496 570 1006 1262 1264 1190 1182 1136 1208 1234 1084 958 1038 1213 1134 1187 1031 1196 1184 1202 961 1095 1161 1055 948 992 1104 1087 1244 1376 1549 1398 1401 1178 1271 943 933 737 796 1045 875 723 577 194 110 10 0 0 0 0 0 0 0 0 0 0
347 422 398 460 656 466 600 564 759 1315 1430 1419 1194 1040 1118 1202 1117 916 998 993 970 1052 1154 1040 838 977 1316 1254 985 1024 836 947 1069 1119 1072 1276 1149 1248 1136 1299 1410 1058 852 1184 1354 878 972 854 426 465 203 19 89 0 0 0 0 0 0 0 0 0 0
719 845 660 654 731 726 830 1062 1207 1590 1421 1202 906 1012 1084 999 1048 890 936 881 937 970 1039 1085 859 822 1028 1206 1287 1128 1130 1288 1342 1173 1272 999 1142 1216 1209 1254 1068 1024 1523 1138 676 451 816 901 802 635 255 45 76 2 0 0 0 0 0 0 0 0 0
717 932 522 508 554 748 788 1256 1209 1231 1315 949 900 924 938 861 679 548 601 636 580 611 632 613 678 782 900 1024 1393 1238 1335 1132 1022 1138 1174 1249 1145 1345 1145 1054 916 1251 1371 918 859 607 957 688 634 303 89 96 68 179 2 11 0 0 0 0 0 0 0
890 654 657 533 617 672 851 995 1130 1153 976 982 951 890 604 476 340 312 353 467 404 623 596 708 812 822 728 831 1342 1202 1063 1112 928 817 955 1012 1117 1378 1203 1135 1083 1086 1106 968 725 678 489 602 478 365 163 33 81 9 0 24 0 0 0 46 0 0 0
786 660 590 700 502 616 1045 872 1078 847 818 754 608 413 322 317 361 317 394 403 528 442 599 606 691 704 678 765 1260 1260 1336 900 614 710 846 563 875 747 1250 952 903 905 1052 910 809 580 460 273 375 134 31 24 2 0 2 3 0 0 0 0 0 0 0
761 850 720 623 553 396 899 850 758 847 603 689 555 389 407 511 514 420 511 438 349 428 357 515 675 707 692 722 1001 799 1156 908 756 821 844 645 466 532 777 988 794 1070 1066 986 909 421 339 189 261 5 11 10 0 0 0 1 1 0 0 0 8 0 0
902 809 786 413 358 552 728 789 739 652 556 584 620 690 628 387 462 321 424 133 286 345 190 538 484 407 417 533 803 848 693 702 794 730 636 746 349 659 659 550 848 1022 1068 807 778 607 466 142 54 3 3 0 0 0 0 10 3 0 0 0 0 0 0
1020 784 473 402 777 828 759 811 664 567 816 544 442 618 466 456 389 254 476 134 134 186 225 233 342 328 544 580 866 697 729 553 456 397 503 400 420 366 996 790 528 894 1118 964 770 748 276 45 25 2 0 0 0 0 56 0 7 0 0 0 0 0 0
1081 620 525 798 914 848 894 928 787 732 325 341 476 531 249 180 164 173 214 166 73 107 144 209 256 354 316 580 682 691 574 404 320 425 372 432 243 386 847 922 1223 866 473 387 1080 827 490 71 30 14 0 1 0 0 80 0 6 3 2 0 0 0 0
920 872 738 818 835 757 637 685 672 345 315 410 557 433 188 392 198 175 110 98 42 56 45 45 177 161 145 241 406 334 440 511 510 467 348 240 236 299 376 701 597 970 768 712 846 1060 942 462 28 232 0 6 0 0 0 0 0 0 1 0 0 0 1
592 734 797 732 648 641 624 572 595 398 456 580 392 356 99 264 155 125 191 140 144 100 2 0 0 1 16 177 129 226 273 414 203 263 92 306 239 50 230 503 345 252 729 844 740 1054 1110 880 502 198 697 104 103 23 0 1 2 1 6 3 0 11 12
612 542 843 671 530 431 478 560 410 360 461 217 302 213 223 155 270 91 156 229 8 0 0 0 0 0 0 0 64 41 153 83 195 110 122 241 319 23 158 21 17 26 749 1226 711 1120 1143 994 566 379 509 753 296 46 6 80 0 89 14 10 34 19 33
563 524 596 515 508 495 491 318 321 342 482 202 200 173 200 182 176 166 276 95 0 0 0 0 0 0 0 0 0 113 145 70 142 114 40 76 6 44 106 5 0 0 0 352 302 343 305 234 0 165 0 16 420 460 222 186 107 19 11 86 98 107 85
417 425 432 440 375 354 377 523 499 586 354 284 217 250 221 30 87 80 55 42 0 0 0 0 0 0 0 0 0 0 146 52 141 6 162 34 179 68 6 46 0 0 0 0 0 33 232 212 22 8 51 0 220 279 648 741 449 444 231 92 113 84 50
384 344 325 150 184 400 480 581 496 307 465 245 187 113 44 5 165 75 1 0 0 0 0 0 0 0 0 0 0 0 46 120 0 12 29 93 10 52 89 111 102 5 0 0 0 0 0 0 0 0 0 0 25 154 156 149 150 100 114 73 122 180 210
321 258 317 428 388 437 290 265 252 428 362 217 53 22 20 164 28 10 0 0 0 0 0 0 0 0 0 0 0 0 0 3 81 1 0 2 0 36 16 54 121 4 0 0 1 0 0 0 0 0 0 0 0 52 108 103 77 60 70 83 87 101 157
357 326 325 334 318 288 303 275 238 176 102 34 2 0 0 0 0 0 0 0 0 0 0 0 0 0 0 0 0 0 0 0 20 31 17 0 32 7 78 298 166 216 20 0 0 0 68 0 0 0 0 39 26 13 12 84 76 52 42 56 95 116 148
276 123 298 307 301 266 311 234 122 17 3 2 0 0 0 0 0 0 0 0 0 0 0 0 0 0 0 0 0 0 0 11 62 0 78 59 20 134 283 64 36 36 0 0 0 0 0 302 129 145 320 353 129 93 171 119 17 0 0 0 0 51 132
120 291 278 231 295 235 220 133 65 34 10 0 0 0 0 0 0 0 0 0 0 0 0 0 0 0 0 0 0 0 1 46 0 19 5 15 1 29 154 420 116 0 0 0 0 0 0 2 174 48 108 171 264 580 325 374 401 505 397 186 222 158 70
32 42 90 110 158 139 48 62 33 23 8 2 3 0 10 0 0 0 0 0 0 0 0 0 0 0 0 0 0 0 4 44 15 74 161 152 3 0 0 72 228 55 0 0 0 0 0 4 251 221 247 214 185 176 391 457 240 207 0 0 0 0 0
4 4 0 2 26 39 8 0 1 10 9 0 2 0 0 0 0 0 0 0 0 0 0 0 0 0 0 3 2 0 0 8 92 34 82 127 0 0 0 0 0 0 0 0 0 0 0 0 0 2 44 244 381 423 229 176 362 360 367 289 244 235 214
8 10 4 6 11 8 3 10 12 13 11 10 7 3 5 4 1 1 0 0 0 0 0 0 0 0 2 4 4 1 0 0 0 25 51 56 0 0 0 0 0 0 0 0 0 0 0 0 0 0 0 0 0 64 137 247 256 329 366 379 384 350 439
2 0 2 5 4 5 6 10 7 4 1 2 5 2 0 0 0 0 0 0 0 0 0 0 0 12 14 5 6 2 0 0 0 0 0 0 0 4 0 0 0 0 0 0 0 0 0 0 0 0 0 0 0 0 0 0 9 140 204 288 298 290 298
5 4 4 1 0 0 2 2 3 3 3 2 3 3 2 1 0 0 0 0 0 2 2 6 13 17 20 3 4 2 0 0 0 0 0 0 0 0 0 0 0 0 0 0 0 0 0 0 0 0 0 0 0 0 0 0 0 0 0 0 0 0 0
1 2 1 2 5 10 13 14 12 10 6 5 2 0 1 2 1 3 2 6 16 25 24 25 27 30 30 25 21 16 10 1 0 0 0 0 0 0 0 0 0 0 0 0 0 0 0 0 0 0 0 0 0 0 0 0 0 0 0 0 0 0 0
0 0 0 0 0 1 2 3 2 3 3 4 4 6 5 4 4 5 5 5 3 6 9 8 11 14 14 14 13 14 12 3 6 7 0 0 0 0 0 0 0 0 0 0 0 0 0 0 0 0 0 0 0 0 0 0 0 0 0 0 0 0 0
0 0 0 0 0 0 1 6 8 8 10 9 9 8 7 5 4 3 2 0 2 2 0 0 0 0 1 2 2 0 0 8 10 8 0 1 1 0 0 8 0 0 0 0 0 0 0 0 1 3 6 4 1 0 0 0 0 0 0 0 0 0 0